     2.10           OBSERVATION DATA    G (GPS)             RINEX VERSION / TYPE
teqc 2000Jul20 Karen Wendt 20040726 19:05:33UTC             PGM / RUN BY / DATE
Linux 2.0.36|Pentium II|gcc -static|Linux|486/DX+           COMMENT
teqc 2000Jul20 Karen Wendt 20040726 19:05:33UTC             COMMENT
BIT 2 OF LLI FLAGS DATA COLLECTED UNDER A/S CONDITION       COMMENT
plum Plummer_TOO_1988_DOA_ForestService                     MARKER NAME
JLS USGS                                                    OBSERVER / AGENCY
ZE120023202 ASHTECH UZ-12 ZE00                              REC # / TYPE / VERS
CR14329 ASH700936D_M NONE                                   ANT # / TYPE
 -2660273.0000 -4065282.0000  4120610.0000                  APPROX POSITION XYZ
        1.3369        0.0000        0.0000                  ANTENNA: DELTA H/E/N
     1     1                                                WAVELENGTH FACT L1/2
     5    C1    L1    L2    P1    P2                        # / TYPES OF OBSERV
    30.0000                                                 INTERVAL
                                                            COMMENT
National Earthquake Hazard Reduction Program                COMMENT
Crustal Strain Project                                      COMMENT
345 Middlefield Road, MS/977                                COMMENT
U.S. Geological Survey, Menlo Park, California 94025        COMMENT
Contact: kwendt@usgs.gov (Ph: 650-329-4866)                 COMMENT
Antenna height is vertical to base of antenna               COMMENT
                                                            COMMENT
SNR is mapped to RINEX snr flag value [1-9]                 COMMENT
L1: 1 -> 1; 90 -> 5; 210 -> 9                               COMMENT
L2: 1 -> 1; 150 -> 5; 250 -> 9                              COMMENT
  2004     7    20     0     0    0.0000000     GPS         TIME OF FIRST OBS
                                                            END OF HEADER
 04  7 20  0  0  0.0000000  0  8G13G23G16G27G 3G 8G20G 1
  20464431.086   -23283677.41744 -17682602.67142  20464433.260    20464427.747
  20859130.518   -24830162.77943 -19338415.37442  20859132.177    20859125.326
  22828561.720   -12875396.85543  -9915920.96942  22828562.950    22828558.827
  21979951.008   -19824831.65343 -15404232.38642  21979952.334    21979948.998
  23830933.052    -7348948.52943  -5694919.40442  23830934.960    23830933.356
  23988477.797    -9710001.48843  -7387129.49942  23988478.406    23988477.399
  23422573.862    -9352747.52343  -7278216.74942  23422574.731    23422573.226
  21633926.241   -19769351.26943 -15399447.35042  21633927.589    21633924.596
 04  7 20  0  0 30.0000000  0  8G13G23G16G27G 3G 8G20G 1
  20458588.445   -23314380.49644 -17706527.13842  20458590.640    20458585.111
  20868025.767   -24783417.86643 -19301990.79742  20868027.452    20868020.612
  22843456.907   -12797122.06343  -9854927.68642  22843458.216    22843454.102
  21970436.409   -19874830.84843 -15443192.77442  21970437.776    21970434.534
  23819391.442    -7409599.48343  -5742179.77642  23819393.282    23819391.373
  23971890.107    -9797172.55243  -7455054.90742  23971890.509    23971889.682
  23443655.688    -9241962.03643  -7191890.51242  23443656.531    23443655.260
  21644929.619   -19711527.63143 -15354390.00342  21644930.980    21644928.144
 04  7 20  0  1  0.0000000  0  8G13G23G16G27G 3G 8G20G 1
  20452809.607   -23344748.62644 -17730190.60542  20452811.802    20452806.294
  20876989.836   -24736311.26743 -19265284.37442  20876991.495    20876984.710
  22858422.691   -12718476.54543  -9793645.52342  22858423.923    22858419.860
  21960958.171   -19924639.42443 -15482004.62842  21960959.572    21960956.384
  23807910.755    -7469930.34243  -5789190.76242  23807912.510    23807910.693
  23955326.967    -9884213.23743  -7522878.71642  23955327.317    23955326.632
  23464764.878    -9131033.62343  -7105452.91942  23464765.685    23464764.443
  21655989.061   -19653409.41343 -15309103.11042  21655990.438    21655987.737
 04  7 20  0  1 30.0000000  0  8G13G23G16G27G 3G 8G20G 1
  20447095.406   -23374777.01344 -17753589.34242  20447097.596    20447092.066
  20886023.403   -24688839.47843 -19228293.38642  20886025.044    20886018.276
  22873459.315   -12639458.86843  -9732073.36842  22873460.503    22873456.420
  21951516.885   -19974253.78943 -15520665.14642  21951518.298    21951515.141
  23796492.239    -7529934.61943  -5835947.26842  23796494.022    23796492.328
  23938788.914    -9971119.04543  -7590597.39942  23938789.538    23938788.789
  23485901.355    -9019961.32843  -7018903.21042  23485902.261    23485900.922
  21667105.467   -19594993.10043 -15263583.95942  21667106.805    21667103.985
 04  7 20  0  2  0.0000000  0  8G13G23G16G27G 3G 8G20G 1
  20441444.439   -23404472.93844 -17776729.01542  20441446.617    20441441.125
  20895124.815   -24641011.34543 -19191024.74142  20895126.489    20895119.692
  22888564.541   -12560080.65343  -9670220.26542  22888565.671    22888561.546
  21942110.634   -20023683.01843 -15559181.39642  21942112.116    21942108.980
  23785134.886    -7589618.16743  -5882453.86642  23785136.712    23785134.993
  23922275.127   -10057898.09143  -7658217.31342  23922275.759    23922274.889
  23507063.028    -8908756.72543  -6932250.44942  23507063.934    23507062.746
  21678276.780   -19536287.56043 -15217839.43042  21678278.110    21678275.302
 04  7 20  0  2 30.0000000  0  8G13G23G16G27G 3G 8G20G 1
  20435859.094   -23433823.96544 -17799599.93942  20435861.286    20435855.806
  20904296.133   -24592816.10143 -19153470.02642  20904297.793    20904290.949
  22903739.992   -12480333.53843  -9608079.70142  22903741.072    22903736.936
  21932741.819   -20072916.27243 -15597544.94342  21932743.291    21932740.013
  23773841.096    -7648967.61643  -5928700.12742  23773842.822    23773841.152
  23905787.536   -10144539.45743  -7725729.95242  23905788.119    23905787.294
  23528251.630    -8797411.62743  -6845488.19742  23528252.471    23528251.299
  21689505.205   -19477282.11743 -15171861.20242  21689506.519    21689503.624
 04  7 20  0  3  0.0000000  0  8G13G23G16G27G 3G 8G20G 1
  20430338.341   -23462835.79144 -17822206.54942  20430340.501    20430335.070
  20913535.922   -24544260.75543 -19115634.71542  20913537.588    20913530.799
  22918983.765   -12400226.96043  -9545659.02942  22918984.931    22918980.824
  21923409.009   -20121960.63243 -15635761.28742  21923410.448    21923407.027
  23762609.986    -7707986.58743  -5974688.87242  23762611.760    23762610.156
  23889325.183   -10231049.43543  -7793140.20542  23889325.586    23889324.614
  23549465.118    -8685935.71843  -6758624.00742  23549465.927    23549464.610
  21700789.320   -19417983.63943 -15125654.62842  21700790.737    21700787.780
 04  7 20  0  3 30.0000000  0  8G13G23G16G27G 3G 8G20G 1
  20424883.116   -23491503.12744 -17844544.72342  20424885.279    20424879.842
  20922844.983   -24495341.51043 -19077515.84442  20922846.640    20922839.874
  22934296.327   -12319759.46443  -9482957.13942  22934297.420    22934293.402
  21914112.884   -20170812.43443 -15673827.59442  21914114.278    21914110.809
  23751443.136    -7766668.50343  -6020414.96442  23751444.888    23751443.304
  23872888.600   -10317423.47343  -7860444.51142  23872889.014    23872887.774
  23570703.479    -8574327.70443  -6671656.86842  23570704.346    23570703.003
  21712129.962   -19358388.55343 -15079216.94142  21712131.377    21712128.456
 04  7 20  0  4  0.0000000  0  8G13G23G16G27G 3G 8G20G 1
  20419493.306   -23519826.54244 -17866614.91442  20419495.449    20419489.971
  20932222.780   -24446061.12343 -19039115.56842  20932224.452    20932217.636
  22949676.436   -12238936.25243  -9419978.05442  22949677.595    22949673.607
  21904852.860   -20219474.23843 -15711745.85542  21904854.279    21904850.839
  23740340.542    -7825013.08643  -6065878.18842  23740342.293    23740340.563
  23856477.600   -10403663.65943  -7927644.56342  23856477.822    23856476.634
  23591965.922    -8462592.96643  -6584590.96642  23591966.805    23591965.403
  21723526.520   -19298499.51943 -15032550.21342  21723527.924    21723524.985
 04  7 20  0  4 30.0000000  0  8G13G23G16G27G 3G 8G20G 1
  20414169.155   -23547805.24544 -17888416.49442  20414171.256    20414165.798
  20941669.274   -24396419.75543 -19000434.00942  20941670.951    20941664.107
  22965123.880   -12157759.79643  -9356723.73342  22965124.985    22965120.980
  21895628.815   -20267946.47643 -15749516.38842  21895630.282    21895626.884
  23729302.420    -7883017.81043  -6111076.60342  23729304.207    23729302.521
  23840092.098   -10489769.64943  -7994740.00942  23840092.505    23840091.026
  23613251.820    -8350734.45443  -6497428.62942  23613252.599    23613251.432
  21734978.894   -19238316.90443 -14985654.71142  21734980.310    21734977.366
 04  7 20  0  5  0.0000000  0  8G13G23G16G27G 3G 8G20G 1
  20408911.247   -23575435.78144 -17909946.77642  20408913.356    20408907.947
  20951184.781   -24346415.44743 -18961469.63042  20951186.418    20951179.613
  22980638.335   -12076230.43643  -9293194.41542  22980639.505    22980635.549
  21886441.299   -20316227.16843 -15787137.65542  21886442.738    21886439.240
  23718330.125    -7940677.70643  -6156006.31442  23718331.758    23718330.285
  23823732.834   -10575738.99543  -8061728.94842  23823733.250    23823731.172
  23634561.421    -8238752.61043  -6410170.19142  23634562.027    23634560.949
  21746487.716   -19177838.69443 -14938528.88442  21746489.066    21746486.022
 04  7 20  0  5 30.0000000  0  8G13G23G16G27G 3G 8G20G 1
  20403719.196   -23602720.36444 -17931207.48242  20403721.300    20403715.893
  20960768.484   -24296052.22243 -18922225.58142  20960770.154    20960763.459
  22996218.609   -11994354.76543  -9229395.22842  22996219.889    22996216.071
  21877289.578   -20364320.08343 -15824612.61842  21877290.962    21877287.415
  23707423.193    -7997993.94443  -6200668.24042  23707424.847    23707423.267
  23807398.499   -10661575.08043  -8128614.04842  23807398.911    23807396.718
  23655893.381    -8126653.94643  -6322820.76442  23655893.801    23655892.981
  21758051.832   -19117068.77843 -14891175.74542  21758053.250    21758050.239
 04  7 20  0  6  0.0000000  0  8G13G23G16G27G 3G 8G20G 1
  20398594.211   -23629651.93644 -17952193.11442  20398596.344    20398590.972
  20970421.690   -24245324.58943 -18882697.59042  20970423.329    20970416.606
  23011865.393   -11912129.79643  -9165323.85842  23011866.687    23011863.104
  21868174.367   -20412220.09343 -15861937.27142  21868175.766    21868172.414
  23696583.224    -8054958.15143  -6245055.86642  23696585.004    23696583.192
  23791090.635   -10747271.79343  -8195390.63042  23791091.016    23791089.046
  23677247.870    -8014435.73043  -6235378.17842  23677248.453    23677247.819
  21769672.425   -19056001.82743 -14843591.13742  21769673.861    21769670.943
 04  7 20  0  6 30.0000000  0  8G13G23G16G27G 3G 8G20G 1
  20393535.828   -23656234.06444 -17972906.44642  20393537.916    20393532.517
  20980143.157   -24194237.73443 -18842889.67842  20980144.852    20980138.069
  23027577.427   -11829562.91943  -9100986.06742  23027578.707    23027575.146
  21859094.967   -20459932.17643 -15899115.49042  21859096.389    21859093.142
  23685809.697    -8111572.21243  -6289170.62842  23685811.575    23685809.839
  23774808.690   -10832833.60343  -8262062.05742  23774809.060    23774807.189
  23698623.837    -7902105.67843  -6147848.42542  23698624.462    23698623.865
  21781348.740   -18994642.84543 -14795778.97842  21781350.131    21781347.198
 04  7 20  0  7  0.0000000  0  8G13G23G16G27G 3G 8G20G 1
  20388544.386   -23682464.27344 -17993345.56142  20388546.466    20388541.029
  20989933.228   -24142790.73243 -18802801.13342  20989934.907    20989928.095
  23043354.212   -11746655.48743  -9036382.90742  23043355.535    23043351.890
  21850051.610   -20507455.32243 -15936146.46642  21850053.054    21850049.768
  23675103.329    -8167832.48643  -6333009.77442  23675105.139    23675103.666
  23758552.905   -10918258.76843  -8328627.00242  23758553.128    23758551.522
  23720020.724    -7789665.13843  -6060232.59842  23720021.388    23720020.838
  21793080.795   -18932990.85743 -14747738.51342  21793082.193    21793079.188
 04  7 20  0  7 30.0000000  0  8G13G23G16G27G 3G 8G20G 1
  20383619.839   -23708342.65444 -18013510.51642  20383621.930    20383616.542
  20999791.486   -24090985.37443 -18762433.35042  20999793.105    20999786.359
  23059195.148   -11663411.62343  -8971517.61142  23059196.394    23059192.655
  21841043.962   -20554791.35043 -15973031.63242  21841045.364    21841041.952
  23664465.047    -8223737.71143  -6376572.24242  23664466.740    23664465.319
  23742323.026   -11003548.86843  -8395086.70442  23742323.250    23742321.317
  23741437.629    -7677118.64343  -5972534.18742  23741438.365    23741437.677
  21804868.174   -18871047.79843 -14699471.23042  21804869.520    21804866.646
 04  7 20  0  8  0.0000000  0  8G13G23G16G27G 3G 8G20G 1
  20378763.494   -23733863.12544 -18033396.58242  20378765.585    20378760.184
  21009718.767   -24038817.19043 -18721782.85042  21009720.428    21009713.729
  23075100.175   -11579829.26443  -8906388.53942  23075101.607    23075097.859
  21832072.648   -20601935.79243 -16009767.52442  21832074.078    21832070.614
  23653895.712    -8279280.54243  -6419852.30842  23653897.379    23653895.884
  23726119.791   -11088698.41443  -8461436.87242  23726120.243    23726117.828
  23762875.163    -7564464.41743  -5884751.80042  23762875.762    23762874.819
  21816711.664   -18808809.35643 -14650973.77342  21816713.003    21816710.299
 04  7 20  0  8 30.0000000  0  8G13G23G16G27G 3G 8G20G 1
  20373975.129   -23759025.88044 -18053003.91042  20373977.273    20373971.756
  21019714.956   -23986287.34243 -18680850.53742  21019716.587    21019709.918
  23091069.145   -11495912.37043  -8840998.79742  23091070.445    23091066.667
  21823137.480   -20648889.95343 -16046355.15042  21823138.956    21823135.494
  23643395.325    -8334459.56943  -6462848.90042  23643397.037    23643395.600
  23709942.907   -11173708.31943  -8527678.25042  23709943.447    23709941.171
  23784332.358    -7451706.05343  -5796888.32842  23784332.855    23784331.833
  21828611.346   -18746276.84343 -14602247.17842  21828612.670    21828609.900
 04  7 20  0  9  0.0000000  0  8G13G23G16G27G 3G 8G20G 1
  20369254.897   -23783830.92344 -18072332.50842  20369257.058    20369251.456
  21029779.403   -23933398.10243 -18639638.16842  21029781.034    21029774.440
  23107100.871   -11411664.92643  -8775351.47142  23107102.109    23107098.504
  21814238.206   -20695655.80843 -16082796.03742  21814239.707    21814236.273
  23632964.518    -8389273.96043  -6505561.35942  23632966.149    23632964.824
  23693791.968   -11258579.63443  -8593811.63342  23693792.688    23693790.716
  23805808.654    -7338848.31043  -5708947.39842  23805809.266    23805807.811
  21840566.521   -18683452.30143 -14553293.04242  21840567.888    21840565.053
 04  7 20  0  9 30.0000000  0  8G13G23G16G27G 3G 8G20G 1
  20364602.922   -23808277.02244 -18091381.40442  20364605.092    20364599.533
  21039912.198   -23880149.86343 -18598146.06142  21039913.804    21039907.208
  23123194.817   -11327090.14143  -8709449.08342  23123196.134    23123192.612
  21805374.751   -20742233.83543 -16119090.55642  21805376.242    21805372.764
  23622603.621    -8443720.88943  -6547987.47442  23622605.228    23622603.968
  23677667.383   -11343312.78543  -8659837.38842  23677668.045    23677666.559
  23827303.277    -7225894.03643  -5620931.25142  23827304.107    23827302.556
  21852576.979   -18620336.21243 -14504111.71042  21852578.327    21852575.662
 04  7 20  0 10  0.0000000  0  8G13G23G16G27G 3G 8G20G 1
  20360019.558   -23832362.67644 -18110149.43742  20360021.710    20360016.217
  21050113.277   -23826542.64443 -18556374.23142  21050114.876    21050108.339
  23139350.787   -11242190.13543  -8643293.27842  23139352.144    23139348.732
  21796546.958   -20788623.85543 -16155238.58442  21796548.431    21796544.942
  23612313.154    -8497797.49143  -6590125.04142  23612314.786    23612313.523
  23661570.088   -11427906.48543  -8725754.46142  23661570.341    23661569.069
  23848815.738    -7112845.83043  -5532841.92942  23848816.731    23848815.515
  21864642.904   -18556928.40443 -14454703.04942  21864644.251    21864641.787
 04  7 20  0 10 30.0000000  0  8G13G23G16G27G 3G 8G20G 1
  20355505.248   -23856085.25044 -18128634.55342  20355507.399    20355501.940
  21060383.039   -23772575.22043 -18514321.72642  21060384.600    21060378.049
  23155568.489   -11156966.08943  -8576884.97842  23155569.768    23155566.496
  21787755.080   -20834824.80243 -16191239.28442  21787756.563    21787753.111
  23602093.861    -8551500.01243  -6631971.13342  23602095.489    23602094.147
  23645499.316   -11512359.07943  -8791561.57442  23645499.786    23645498.242
  23870345.908    -6999704.75243  -5444680.22142  23870346.857    23870345.916
  21876764.871   -18493227.72043 -14405066.19842  21876766.126    21876763.641
 04  7 20  0 11  0.0000000  0  8G13G23G16G27G 3G 8G20G 1
  20351060.568   -23879441.93644 -18146834.55842  20351062.744    20351057.262
  21070721.357   -23718246.74843 -18471987.88242  21070722.991    21070716.454
  23171847.523   -11071419.39343  -8510225.24842  23171848.810    23171845.730
  21778999.578   -20880835.53043 -16227091.76342  21779001.019    21778997.548
  23591946.444    -8604824.33543  -6673522.49842  23591948.137    23591946.922
  23629455.358   -11596669.11243  -8857257.60242  23629455.896    23629454.669
  23891893.548    -6886472.64343  -5356447.60142  23891894.437    23891893.525
  21888942.565   -18429233.34343 -14355200.48242  21888943.881    21888941.432
 04  7 20  0 11 30.0000000  0  8G13G23G16G27G 3G 8G20G 1
  20346684.797   -23902436.60044 -18164752.46442  20346686.958    20346681.507
  21081127.446   -23663562.59543 -18429376.88042  21081129.056    21081122.617
  23188186.500   -10985557.74143  -8443320.09342  23188187.680    23188184.769
  21770279.233   -20926661.30343 -16262800.12442  21770280.664    21770277.189
  23581870.620    -8657773.05043  -6714781.18742  23581872.331    23581871.107
  23613437.860   -11680841.12443  -8922846.09142  23613438.234    23613437.011
  23913456.813    -6773157.13743  -5268150.01742  23913457.761    23913456.891
  21901175.159   -18364950.54043 -14305110.00042  21901176.435    21901174.150
 04  7 20  0 12  0.0000000  0  8G13G23G16G27G 3G 8G20G 1
  20342378.920   -23925064.09244 -18182384.26142  20342381.079    20342375.641
  21091601.889   -23608519.10843 -18386485.87642  21091603.468    21091597.052
  23204585.786   -10899379.90043  -8376168.56042  23204586.720    23204583.919
  21761594.586   -20972298.54943 -16298361.57642  21761596.070    21761592.689
  23571867.535    -8710339.57643  -6755742.08042  23571869.252    23571867.967
  23597447.264   -11764870.60443  -8988323.48442  23597447.810    23597446.631
  23935035.879    -6659757.06243  -5179786.51842  23935036.879    23935036.345
  21913463.431   -18300375.77743 -14254792.03342  21913464.754    21913462.418
 04  7 20  0 12 30.0000000  0  8G13G23G16G27G 3G 8G20G 1
  20338143.274   -23947322.73744 -18199728.64742  20338145.427    20338139.933
  21102144.722   -23553116.35643 -18343314.93242  21102146.308    21102139.754
  23221044.630   -10812888.31643  -8308772.55342  23221045.672    23221042.839
  21752945.866   -21017747.25543 -16333776.11542  21752947.382    21752944.023
  23561937.770    -8762521.25343  -6796403.07242  23561939.466    23561938.045
  23581484.052   -11848757.47143  -9053689.75342  23581484.720    23581483.323
  23956630.733    -6546275.08843  -5091359.17342  23956631.554    23956631.312
  21925807.277   -18235509.31143 -14204246.79142  21925808.674    21925806.159
 04  7 20  0 13  0.0000000  0  8G13G23G16G27G 3G 8G20G 1
  20333978.118   -23969210.82044 -18216784.28042  20333980.271    20333974.740
  21112755.937   -23497354.58743 -18299864.23442  21112757.534    21112750.864
  23237562.702   -10726085.18943  -8241133.78242  23237563.901    23237560.941
  21744333.190   -21063007.34143 -16369043.68142  21744334.649    21744331.240
  23552081.635    -8814315.30843  -6836762.00942  23552083.323    23552081.831
  23565547.715   -11932500.68643  -9118944.07542  23565548.163    23565547.314
  23978241.194    -6432713.65243  -5002869.91442  23978241.825    23978241.339
  21938206.522   -18170350.98143 -14153474.11642  21938207.977    21938205.456
 04  7 20  0 13 30.0000000  0  8G13G23G16G27G 3G 8G20G 1
  20329883.402   -23990728.64044 -18233551.40642  20329885.568    20329880.008
  21123435.032   -23441235.46943 -18256135.07942  21123436.644    21123430.008
  23254139.312   -10638974.61243  -8173255.45242  23254140.452    23254137.511
  21735756.058   -21108080.45743 -16404165.55242  21735757.493    21735754.112
  23542299.424    -8865720.52743  -6876817.96642  23542301.169    23542299.810
  23549638.717   -12016101.49943  -9184087.48242  23549639.179    23549638.410
  23999866.016    -6319076.85143  -4914321.95842  23999866.718    23999865.694
  21950660.963   -18104902.72443 -14102475.51042  21950662.334    21950659.830
 04  7 20  0 14  0.0000000  0  8G13G23G16G27G 3G 8G20G 1
  20325859.214   -24011875.92044 -18250029.79542  20325861.349    20325855.837
  21134181.750   -23384760.41043 -18212128.55242  21134183.367    21134176.924
  23270773.704   -10551560.15643  -8105140.32442  23270774.988    23270772.009
  21727214.297   -21152967.60543 -16439142.51342  21727215.703    21727212.391
  23532591.693    -8916735.07043  -6916569.50842  23532593.359    23532592.009
  23533757.132   -12099560.21343  -9249120.14042  23533757.605    23533756.480
  24021504.167    -6205368.32443  -4825718.10142  24021505.120    24021503.743
  21963170.363   -18039165.69143 -14051251.89442  21963171.747    21963169.155
 04  7 20  0 14 30.0000000  0  8G13G23G16G27G 3G 8G20G 1
  20321905.886   -24032650.91944 -18266218.10442  20321908.016    20321902.492
  21144996.298   -23327929.38843 -18167844.66142  21144997.877    21144991.565
  23287465.716   -10463844.30543  -8036790.35642  23287467.046    23287463.764
  21718707.906   -21197668.99343 -16473974.72942  21718709.293    21718705.971
  23522958.725    -8967356.36443  -6956014.60042  23522960.385    23522958.936
  23517902.641   -12182876.59243  -9314041.87042  23517903.068    23517901.940
  24043155.101    -6091590.94443  -4737060.61142  24043156.213    24043155.004
  21975734.705   -17973140.02143 -13999803.37742  21975736.116    21975733.393
 04  7 20  0 15  0.0000000  0  8G13G23G16G27G 3G 8G20G 1
  20318024.451   -24053048.16644 -18282112.05642  20318026.589    20318021.035
  21155879.563   -23270738.35743 -18123280.24942  21155881.110    21155874.698
  23304215.416   -10375825.19643  -7968204.05342  23304216.759    23304213.159
  21710237.658   -21242180.44043 -16508658.94142  21710239.038    21710235.670
  23513401.906    -9017577.51443  -6995147.89042  23513403.509    23513402.032
  23502075.505   -12266045.88443  -9378849.00342  23502076.106    23502075.336
  24064819.726    -5977742.90643  -4648348.06442  24064820.674    24064819.934
  21988354.759   -17906821.76243 -13948126.86042  21988356.113    21988353.294
 04  7 20  0 15 30.0000000  0  8G13G23G16G27G 3G 8G20G 1
  20314214.137   -24073070.95144 -18297714.22142  20314216.317    20314210.802
  21166830.155   -23213192.67443 -18078439.48642  21166831.773    21166825.244
  23321021.290   -10287510.58643  -7899387.51242  23321022.624    23321018.706
  21701802.621   -21286506.93743 -16543199.02942  21701803.986    21701800.606
  23503920.801    -9067400.94043  -7033971.29042  23503922.376    23503920.903
  23486275.853   -12349072.52543  -9443545.00942  23486276.414    23486275.754
  24086496.394    -5863831.78043  -4559586.40242  24086497.190    24086496.933
  22001029.317   -17840216.30343 -13896226.55042  22001030.700    22001027.858
 04  7 20  0 16  0.0000000  0  8G13G23G16G27G 3G 8G20G 1
  20310474.711   -24092721.68343 -18313026.48042  20310476.865    20310471.414
  21177847.542   -23155296.15543 -18033325.33242  21177849.140    21177842.545
  23337882.281   -10198906.17943  -7830345.15842  23337883.420    23337879.366
  21693401.991   -21330652.23943 -16577597.92642  21693403.393    21693399.973
  23494515.241    -9116827.50843  -7072485.43742  23494516.777    23494515.289
  23470503.331   -12431959.42143  -9508132.08642  23470503.594    23470502.615
  24108184.041    -5749863.66843  -4470780.30342  24108184.900    24108184.675
  22013757.706   -17773327.32243 -13844105.30242  22013759.137    22013756.446
 04  7 20  0 16 30.0000000  0  8G13G23G16G27G 3G 8G20G 1
  20306808.473   -24111987.82144 -18328039.04342  20306810.588    20306805.226
  21188933.729   -23097038.11843 -17987929.48242  21188935.354    21188928.747
  23354799.642   -10110003.74043  -7761070.56442  23354800.909    23354796.992
  21685037.883   -21374605.35243 -16611847.07242  21685039.341    21685035.832
  23485187.695    -9165843.48943  -7110679.65742  23485189.330    23485187.829
  23454759.489   -12514695.38943  -9572601.53842  23454759.766    23454758.064
  24129884.225    -5635830.18143  -4381923.24842  24129885.022    24129884.731
  22026542.277   -17706143.91643 -13791754.64542  22026543.630    22026540.974
 04  7 20  0 17  0.0000000  0  8G13G23G16G27G 3G 8G20G 1
  20303214.800   -24130872.95143 -18342754.72642  20303216.892    20303211.556
  21200087.722   -23038423.95043 -17942256.14142  21200089.378    21200082.750
  23371772.580   -10020810.87843  -7691569.66842  23371773.767    23371769.573
  21676709.385   -21418371.54743 -16645950.57642  21676710.846    21676707.292
  23475938.013    -9214451.63843  -7148556.11342  23475939.470    23475937.928
  23439043.340   -12597284.44143  -9636956.50642  23439043.733    23439041.519
  24151595.230    -5521739.25343  -4293021.43642  24151596.067    24151595.687
  22039381.970   -17638671.73443 -13739178.98842  22039383.253    22039380.460
 04  7 20  0 17 30.0000000  0  8G13G23G16G27G 3G 8G20G 1
  20299693.436   -24149377.90744 -18357174.16342  20299695.530    20299690.149
  21211308.963   -22979456.20843 -17896307.28142  21211310.602    21211303.922
  23388800.138    -9931332.04443  -7621845.94242  23388800.966    23388796.742
  21668416.144   -21461953.00443 -16679910.11042  21668417.528    21668413.998
  23466765.900    -9262651.39843  -7186114.30242  23466767.342    23466765.854
  23423354.554   -12679728.52943  -9701198.54942  23423354.996    23423352.749
  24173316.063    -5407595.45343  -4204078.39842  24173316.960    24173316.714
  22052276.133   -17570913.04943 -13686380.06242  22052277.417    22052274.626
 04  7 20  0 18  0.0000000  0  8G13G23G16G27G 3G 8G20G 1
  20296244.246   -24167503.40144 -18371297.91942  20296246.347    20296240.956
  21222596.978   -22920137.10343 -17850084.62442  21222598.604    21222591.997
  23405881.081    -9841571.97343  -7551903.03842  23405882.082    23405877.135
  21660157.619   -21505351.99243 -16713727.45942  21660159.018    21660155.335
  23457671.639    -9310442.10443  -7223353.76442  23457673.146    23457671.503
  23407693.214   -12762029.40043  -9765328.99342  23407693.516    23407691.450
  24195045.963    -5293403.59343  -4115097.92842  24195046.797    24195046.885
  22065224.074   -17502870.13643 -13633359.64042  22065225.426    22065223.032
 04  7 20  0 18 30.0000000  0  8G13G23G16G27G 3G 8G20G 1
  20292869.052   -24185240.41544 -18385118.97342  20292871.156    20292865.740
  21233953.259   -22860459.16543 -17803582.36542  21233954.891    21233948.369
  23423016.279    -9751525.21543  -7481736.76742  23423017.462    23423012.493
  21651935.153   -21548560.85843 -16747396.66942  21651936.603    21651932.848
  23448657.049    -9357813.64643  -7260266.61242  23448658.519    23448657.006
  23392060.453   -12844178.82643  -9829341.41442  23392060.811    23392058.990
  24216786.063    -5179158.27243  -4026075.81142  24216786.938    24216787.365
  22078227.813   -17434535.62943 -13580112.02342  22078229.070    22078226.827
 04  7 20  0 19  0.0000000  0  9G13G23G16G27G 3G 8G19G20G 1
  20289565.923   -24202598.68844 -18398644.89242  20289568.038    20289562.579
  21245375.617   -22800434.22643 -17756809.71342  21245377.216    21245370.711
  23440203.562    -9661205.98043  -7411358.19442  23440204.594    23440199.895
  21643746.680   -21591590.96543 -16780926.59842  21643748.131    21643744.444
  23439720.575    -9404774.91243  -7296859.75342  23439721.999    23439720.480
  23376454.546   -12926187.62343  -9893244.25542  23376454.857    23376453.301
  24718686.693    -3743209.09753  -2879455.64452  24718688.373    24718687.242
  24238533.995    -5064873.53543  -3937023.00042  24238534.811    24238535.326
  22091284.767   -17365921.10243 -13526646.21942  22091286.195    22091283.710
 04  7 20  0 19 30.0000000  0  9G13G23G16G27G 3G 8G19G20G 1
  20286337.085   -24219566.20444 -18411866.33642  20286339.214    20286333.744
  21256865.922   -22740051.94143 -17709758.60342  21256867.537    21256861.116
  23457444.071    -9570605.96643  -7340760.79742  23457445.240    23457440.255
  21635594.463   -21634431.61643 -16814308.89742  21635595.819    21635592.165
  23430864.744    -9451312.44043  -7333122.68942  23430866.262    23430864.493
  23360877.653   -13008044.55943  -9957028.77942  23360877.990    23360876.537
  24702799.835    -3826694.48043  -2944508.98442  24702801.644    24702800.371
  24260290.902    -4950541.30143  -3847933.21742  24260291.674    24260292.281
  22104396.981   -17297016.35343 -13472954.25642  22104398.432    22104395.798
 04  7 20  0 20  0.0000000  0  9G13G23G16G27G 3G 8G19G20G 1
  20283182.544   -24236143.90744 -18424784.02642  20283184.653    20283179.092
  21268423.769   -22679314.76143 -17662430.95142  21268425.383    21268419.106
  23474737.273    -9479729.94443  -7269948.33642  23474738.204    23474733.429
  21627477.645   -21677085.42843 -16847545.60042  21627479.011    21627475.447
  23422089.553    -9497426.35043  -7369055.53342  23422091.027    23422089.157
  23345329.292   -13089751.74143 -10020696.59142  23345329.629    23345328.330
  24686921.845    -3910132.94343  -3009525.75642  24686923.660    24686922.301
  24282055.884    -4836166.63343  -3758810.34442  24282056.752    24282057.293
  22117563.702   -17227824.01143 -13419038.17042  22117565.152    22117562.764
 04  7 20  0 20 30.0000000  0  9G13G23G16G27G 3G 8G19G20G 1
  20280102.196   -24252331.31444 -18437397.58542  20280104.313    20280098.715
  21280048.972   -22618224.10143 -17614827.86042  21280050.588    21280044.365
  23492082.385    -9388581.27643  -7198923.43742  23492083.385    23492078.385
  21619396.209   -21719553.21143 -16880637.35842  21619397.555    21619394.138
  23413395.385    -9543114.80843  -7404656.85942  23413396.815    23413394.948
  23329809.134   -13171309.32543 -10084247.84442  23329809.643    23329808.381
  24671053.199    -3993522.37743  -3074504.33942  24671055.015    24671053.823
  24303828.471    -4721752.95443  -3669657.06342  24303829.316    24303829.796
  22130785.134   -17158345.11843 -13364898.82042  22130786.569    22130784.373
 04  7 20  0 21  0.0000000  0  9G13G23G16G27G 3G 8G19G20G 1
  20277095.911   -24268129.26444 -18449707.67542  20277098.071    20277092.426
  21291741.005   -22556782.37343 -17566951.21942  21291742.626    21291736.364
  23509478.523    -9297164.89443  -7127689.91242  23509479.587    23509474.253
  21611349.796   -21761837.40943 -16913586.06942  21611351.096    21611347.724
  23404781.904    -9588377.75443  -7439926.62242  23404783.481    23404781.741
  23314317.093   -13252719.46543 -10147684.21942  23314317.550    23314316.243
  24655194.167    -4076861.94643  -3139444.12142  24655195.850    24655194.824
  24325607.559    -4607304.99543  -3580477.06942  24325608.366    24325608.771
  22144060.815   -17088582.41043 -13310538.32242  22144062.259    22144059.900
 04  7 20  0 21 30.0000000  0  9G13G23G16G27G 3G 8G19G20G 1
  20274164.091   -24283535.62044 -18461712.61242  20274166.259    20274160.703
  21303499.921   -22494989.31243 -17518800.80942  21303501.525    21303495.117
  23526925.168    -9205482.22843  -7056248.89442  23526926.254    23526921.267
  21603338.432   -21803937.16043 -16946391.04642  21603339.770    21603336.409
  23396250.019    -9633211.57043  -7474862.03842  23396251.682    23396250.088
  23298853.507   -13333980.36843 -10211004.29942  23298854.010    23298852.513
  24639345.253    -4160147.56543  -3204341.82642  24639346.837    24639345.827
  24347392.728    -4492824.42443  -3491271.66642  24347393.446    24347393.934
  22157390.418   -17018535.27243 -13255956.19642  22157391.890    22157389.496
 04  7 20  0 22  0.0000000  0  9G13G23G16G27G 3G 8G19G20G 1
  20271307.025   -24298549.51544 -18473411.74342  20271309.182    20271303.643
  21315325.488   -22432845.63943 -17470377.20042  21315327.118    21315320.653
  23544421.533    -9113536.28343  -6984602.70642  23544422.930    23544418.179
  21595362.119   -21845853.20643 -16979052.86142  21595363.476    21595360.012
  23387800.597    -9677614.41343  -7509461.61442  23387802.014    23387800.490
  23283418.287   -13415092.51843 -10274208.45642  23283418.719    23283417.121
  24623506.756    -4243376.92343  -3269195.66542  24623508.462    24623507.858
  24369183.511    -4378314.22343  -3402043.17642  24369184.024    24369184.659
  22170773.941   -16948204.52943 -13201153.07142  22170775.394    22170773.041
 04  7 20  0 22 30.0000000  0  9G13G23G16G27G 3G 8G19G20G 1
  20268525.453   -24313166.79844 -18484801.82442  20268527.604    20268522.091
  21327218.259   -22370348.91343 -17421678.48742  21327219.846    21327213.481
  23561968.237                    -6912751.21342                  23561964.861
  21587421.354   -21887582.63243 -17011569.27042  21587422.677    21587419.087
  23379434.030    -9721581.21343  -7543721.44342  23379435.488    23379433.827
  23268012.154   -13496052.39343 -10337293.98642  23268012.476    23268010.875
  24607680.426    -4326544.00043  -3334001.03042  24607682.154    24607681.615
  24390979.880    -4263774.23943  -3312791.48542  24390980.295    24390980.793
  22184211.889   -16877587.55843 -13146126.90942  22184213.351    22184211.029
 04  7 20  0 23  0.0000000  0  9G13G23G16G27G 3G 8G19G20G 1
  20265818.438   -24327392.27344 -18495886.59942  20265820.604    20265815.071
  21339176.858   -22307506.05543 -17372710.04942  21339178.402    21339172.110
  23579563.616                    -8928862.50743                  23579565.236
  21579514.675   -21929131.97843 -17043945.35442  21579516.030    21579512.411
  23371149.796    -9765115.70443  -7577644.37242  23371151.143    23371149.537
  23252634.128   -13576865.62543 -10400265.24642  23252634.532    23252632.563
  24591865.517    -4409652.14143  -3398760.40942  24591867.163    24591866.587
  24412780.299    -4149213.47243  -3223523.59742  24412780.696    24412781.156
  22197703.206   -16806691.25943 -13090883.08942  22197704.599    22197702.255
 04  7 20  0 23 30.0000000  0  9G13G23G16G27G 3G 8G19G20G 1
  20263187.039   -24341220.35244 -18506661.71542  20263189.202    20263183.599
  21351202.131   -22244313.10443 -17323468.82242  21351203.642    21351197.295
  23597207.768                    -6768451.22842                  23597205.082
  21571643.070   -21970496.97743 -17076177.79642  21571644.433    21571640.833
  23362949.026    -9808211.08243  -7611225.14442  23362950.234    23362948.785
  23237284.866   -13657527.96043 -10463118.89642  23237285.249    23237282.936
  24576063.004    -4492694.14143  -3463468.27542  24576064.645    24576064.056
  24434585.084    -4034630.18443  -3134238.18142  24434585.544    24434586.023
  22211248.166   -16735511.85843 -13035418.66342  22211249.644    22211247.328
 04  7 20  0 24  0.0000000  0  9G13G23G16G27G 3G 8G19G20G 1
  20260631.770   -24354648.56444 -18517125.24642  20260633.926    20260628.298
  21363294.205   -22180769.27343 -17273954.19042  21363295.669    21363289.204
  23614900.713                    -6696002.43842                  23614898.075
  21563806.827   -22011676.55143 -17108265.73942  21563808.162    21563804.601
  23354832.399    -9850863.88943  -7644461.05242  23354833.686    23354832.144
  23221964.141   -13738037.56743 -10525853.53742  23221964.682    23221962.225
  24560273.945    -4575665.40843  -3528121.09742  24560275.589    24560275.265
  24456393.893    -3920025.58343  -3044936.17142  24456394.380    24456394.840
  22224847.262   -16664048.36643 -12979732.87442  22224848.648    22224846.358
 04  7 20  0 24 30.0000000  0  9G13G23G16G27G 3G 8G19G20G 1
  20258152.814   -24367675.28844 -18527275.93342  20258155.022    20258149.420
  21375453.027   -22116874.59943 -17224166.17142  21375454.505    21375448.037
  23632641.828    -8649936.56943  -6623356.44042  23632643.114    23632639.366
  21556005.964   -22052670.14243 -17140208.76642  21556007.279    21556003.819
  23346800.550    -9893071.40143  -7677349.95242  23346801.950    23346800.241
  23206672.546   -13818393.21743 -10588468.25742  23206673.085    23206670.742
  24544498.874    -4658562.71543  -3592716.25542  24544500.526    24544500.451
  24478206.349    -3805402.04743  -2955619.36142  24478206.867    24478207.108
  22238500.395   -16592300.73943 -12923825.68642  22238501.746    22238499.430
 04  7 20  0 25  0.0000000  0  9G13G23G16G27G 3G 8G19G20G 1
  20255749.769   -24380303.57044 -18537116.13742  20255751.946    20255746.329
  21387677.531   -22052633.74843 -17174108.38342  21387679.084    21387672.846
  23650429.702                    -6550518.35242                  23650427.864
  21548239.536   -22093482.44643 -17172010.54342  21548240.865    21548237.475
  23338853.135    -9934835.62843  -7709893.44742  23338854.496    23338852.651
  23191409.867   -13898599.07943 -10650966.24342  23191410.311    23191407.971
  24528737.896    -4741387.41143  -3657254.78942  24528739.465    24528739.187
  24500021.027    -3690766.29443  -2866293.07042  24500021.415    24500021.943
  22252206.799   -16520273.87743 -12867700.90942  22252208.113    22252205.703
 04  7 20  0 25 30.0000000  0  9G13G23G16G27G 3G 8G19G20G 1
  20253422.734   -24392531.82844 -18546644.64142  20253424.947    20253419.315
  21399967.941   -21988047.34843 -17123781.34342  21399969.480    21399963.366
  23668264.070    -8462741.55343  -6477490.33542  23668265.185    23668261.922
  21540507.643   -22134113.72243 -17203671.25042  21540508.990    21540505.606
  23330990.378    -9976154.13943  -7742089.65142  23330991.718    23330989.953
  23176175.894   -13978654.80943 -10713347.23142  23176176.133    23176173.727
  24512991.357    -4824136.43743  -3721734.37742  24512992.851    24512991.795
  24521837.540    -3576121.13343  -2776959.45342  24521837.984    24521838.426
  22265966.219   -16447968.16343 -12811358.85142  22265967.548    22265965.044
 04  7 20  0 26  0.0000000  0  9G13G23G16G27G 3G 8G19G20G 1
  20251172.941   -24404354.54744 -18555857.14442  20251175.136    20251169.518
  21412324.846   -21923111.21943 -17073181.79542  21412326.464    21412320.332
  23686144.990    -8368776.59243                                  23686146.356
  21532811.141   -22174559.43643 -17235187.36442  21532812.497    21532809.056
  23323213.523   -10017020.26543  -7773933.34242  23323214.953    23323213.384
  23160971.004   -14058555.42443 -10775607.36542  23160971.447    23160968.981
  24497260.437    -4906802.21343  -3786149.07542  24497262.034    24497260.385
  24543655.856    -3461464.54543  -2687616.90642  24543656.622    24543657.112
  22279779.343   -16375379.60143 -12754796.39042  22279780.691    22279778.270
 04  7 20  0 26 30.0000000  0  9G13G23G16G27G 3G 8G19G20G 1
  20249000.079   -24415772.99344 -18564754.63242  20249002.257    20248996.638
  21424747.843   -21857828.60443 -17022312.26342  21424749.432    21424743.166
  23704071.809    -8274570.97643                                  23704073.018
  21525149.405   -22214822.20343 -17266560.91842  21525150.759    21525147.274
  23315522.984   -10057434.15543  -7805424.66542  23315524.505    23315522.859
  23145795.564   -14138303.01543 -10837748.26942  23145795.842    23145793.373
  24481545.510    -4989384.14143  -3850498.43842  24481547.133    24481545.123
  24565475.337    -3346801.41643  -2598269.26142  24565476.222    24565476.969
  22293645.689   -16302511.21343 -12698015.87742  22293646.949    22293644.735
 04  7 20  0 27  0.0000000  0  9G13G23G16G27G 3G 8G19G20G 1
  20246903.958   -24426788.61144 -18573338.22942  20246906.071    20246900.484
  21437235.972   -21792202.74143 -16971175.24942  21437237.610    21437231.339
  23722043.431
  21517521.956   -22254904.87643 -17297794.13742  21517523.317    21517519.745
  23307918.388   -10097396.28243  -7836563.92742  23307919.821    23307918.277
  23130648.534   -14217899.92343 -10899771.72742  23130648.937    23130646.674
  24465846.662    -5071881.76943  -3914782.11342  24465848.151    24465845.886
  24587295.529    -3232137.21643  -2508920.83442  24587296.111    24587297.271
  22307564.761   -16229366.08243 -12641019.73442  22307566.008    22307563.762
 04  7 20  0 27 30.0000000  0  9G13G23G16G27G 3G 8G19G20G 1
  20244885.953   -24437393.40844 -18581601.70042  20244888.093    20244882.492
  21449790.670   -21726227.25443 -16919765.80442  21449792.365    21449786.095
  23740059.862
  21509929.968   -22294800.79443 -17328881.83442  21509931.331    21509927.724
  23300401.337   -10136897.68643  -7867344.20542  23300402.783    23300401.272
  23115531.437   -14297339.07043 -10961672.28942  23115531.810    23115529.920
  24450165.432    -5154285.66443  -3978992.75442  24450167.007    24450164.605
  24609116.930    -3117467.67143  -2419568.18342  24609117.419    24609118.401
  22321537.685   -16155937.99543 -12583803.11142  22321539.005    22321536.557
 04  7 20  0 28  0.0000000  0  9G13G23G16G27G 3G 8G19G20G 1
  20242945.341   -24447591.25944 -18589548.07642  20242947.477    20242941.892
  21462410.877   -21659907.89843 -16868088.42242  21462412.592    21462406.227
  23758121.596
  21502372.475   -22334515.36043 -17359828.23442  21502373.849    21502370.304
  23292971.536   -10175941.21543  -7897767.68942  23292973.044    23292971.458
  23100443.603   -14376625.16543 -11023453.58342  23100443.804    23100442.306
  24434501.424    -5236597.66943  -4043131.84142  24434503.040    24434500.918
  24630937.468    -3002800.82843  -2330217.65442  24630938.303    24630939.062
  22335563.473   -16082232.64343 -12526370.44642  22335564.786    22335562.194
 04  7 20  0 28 30.0000000  0  9G13G23G16G27G 3G 8G19G20G 1
  20241083.180   -24457376.88744 -18597173.24042  20241085.330    20241079.697
  21475097.258   -21593241.19343 -16816140.39142  21475098.945    21475092.447
  23776226.164
  21494850.325   -22374044.47443 -17390630.11242  21494851.681    21494848.213
  23285630.183   -10214520.78843  -7927829.64242  23285631.613    23285630.049
  23085386.233   -14455753.84943 -11085112.20142  23085386.222    23085384.564
  24418856.581    -5318810.66643  -4107193.74842  24418858.216    24418856.409
  24652757.764    -2888134.89143  -2240867.83442  24652758.659    24652759.643
  22349642.523   -16008246.35743 -12468718.83742  22349643.879    22349641.320
 04  7 20  0 29  0.0000000  0  9G13G23G16G27G 3G 8G19G20G 1
  20239298.173   -24466757.20044 -18604482.57542  20239300.311    20239294.691
  21487848.011   -21526235.60443 -16763928.27542  21487849.728    21487843.190
  23794376.446
  21487361.847   -22413396.36643 -17421293.90142  21487363.241    21487359.703
  23278375.769   -10252642.20143  -7957534.61242  23278377.302    23278375.721
  23070357.330   -14534732.76443 -11146654.10042  23070357.302    23070355.298
  24403229.779    -5400929.77043  -4171182.50942  24403231.489    24403229.925
  24674576.025    -2773480.48343  -2151526.98742  24674576.909    24674577.805
  22363773.608   -15933987.60343 -12410854.95242  22363774.945    22363772.443
 04  7 20  0 29 30.0000000  0  8G13G23G27G 3G 8G19G20G 1
  20237593.349   -24475715.69844 -18611463.21642  20237595.499    20237589.939
  21500666.126   -21458876.80243 -16711440.93042  21500667.750    21500661.231
  21479910.097   -22452555.98443 -17451807.86142  21479911.429    21479907.707
  23271212.060   -10290288.14343  -7986869.07542  23271213.460    23271211.808
  23055359.391   -14613546.32743 -11208067.16342  23055359.583    23055357.522
  24387624.291    -5482936.91943  -4235083.99642  24387625.840    24387624.658
  24696394.473    -2658825.12743  -2062185.42042  24696395.301    24696396.106
  22377959.275   -15859441.99543 -12352767.55142  22377960.601    22377958.024
 04  7 20  0 30  0.0000000  0  8G13G23G27G 3G 8G19G20G 1
  20235965.417   -24484270.53543 -18618129.32242  20235967.544    20235962.004
  21513547.604   -21391184.52243 -16658693.74142  21513549.233    21513542.756
  21472491.202   -22491542.74244 -17482187.12642  21472492.539    21472488.719
  23264135.469   -10327475.73943  -8015846.36642  23264136.848    23264135.181
  23040389.354   -14692213.52143 -11269366.18842  23040389.595    23040387.561
  24372037.035    -5564848.08743  -4298910.67542  24372038.513    24372037.426
  24718208.735    -2544190.50043  -1972859.98542  24718209.631    24718210.428
  22392195.781   -15784629.13543 -12294471.90442  22392197.084    22392194.357
 04  7 20  0 30 30.0000000  0  8G13G23G27G 3G 8G19G20G 1
  20234415.881   -24492413.41243 -18624474.41442  20234418.001    20234412.471
  21526493.773   -21323152.04143 -16605681.44842  21526495.382    21526488.911
  21465106.543   -22530349.61843 -17512426.22242  21465107.893    21465104.048
  23257147.855   -10364195.61243  -8044459.19742  23257149.286    23257147.552
  23025448.876   -14770726.86243 -11330545.31942  23025449.066    23025446.958
  24356470.066    -5646653.35743  -4362654.85442  24356471.545    24356470.360
  24740019.284    -2429572.08543  -1883547.19942  24740020.332    24740021.522
  22406484.171   -15709542.54543 -12235962.93042  22406485.546    22406482.833
 04  7 20  0 31  0.0000000  0  8G13G23G27G 3G 8G19G20G 1
  20232945.714   -24500139.17844 -18630494.48542  20232947.848    20232942.302
  21539505.231   -21254776.16443 -16552401.57642  21539506.815    21539500.398
  21457756.743   -22568972.63043 -17542522.06242  21457758.142    21457754.359
  23250250.385   -10400441.66543  -8072702.81542  23250251.847    23250250.121
  23010538.315   -14849081.70143 -11391600.95942  23010538.660    23010536.529
  24340924.508    -5728345.23043  -4426310.65042  24340926.032    24340924.773
  24761827.585    -2314968.30243  -1794245.82542  24761828.461    24761830.240
  22420825.466   -15634178.68643 -12177237.90742  22420826.796    22420824.273
 04  7 20  0 31 30.0000000  0  7G13G23G27G 3G 8G19G 1
  20231554.421   -24507450.43044 -18636191.56042  20231556.562    20231550.961
  21552581.269   -21186061.25143 -16498857.51342  21552582.885    21552576.511
  21450441.011   -22607415.87443 -17572477.83042  21450442.453    21450438.893
  23243442.762   -10436215.70543  -8100578.64742  23243444.235    23243442.477
  22995657.428   -14927281.53743 -11452535.83142  22995657.656    22995655.593
  24325400.389    -5809924.70943  -4489878.87742  24325401.964    24325400.420
  22435218.824   -15558541.86543 -12118300.17342  22435220.089    22435217.693
 04  7 20  0 32  0.0000000  0  7G13G23G27G 3G 8G19G 1
  20230243.144   -24514341.22144 -18641561.00242  20230245.279    20230239.699
  21565722.612   -21117003.19343 -16445046.06542  21565724.287    21565717.927
  21443160.649   -22645674.56543 -17602289.78042  21443162.045    21443158.441
  23236726.344   -10471510.66143  -8128081.18242  23236727.767    23236725.948
  22980806.704   -15005321.59343 -11513346.17342  22980807.018    22980805.044
  24309899.000    -5891384.06843  -4553353.53342  24309900.639    24309899.050
  22449664.849   -15482627.92243 -12059146.49542  22449666.049    22449663.793
 04  7 20  0 32 30.0000000  0  7G13G23G27G 3G 8G19G 1
  20229011.295   -24520814.70444 -18646605.27242  20229013.462    20229007.827
  21578928.288   -21047606.95643 -16390971.10942  21578929.978    21578923.614
  21435914.482   -22683753.13843 -17631961.36642  21435915.865    21435912.273
  23230100.643   -10506328.93543  -8155212.28242  23230102.081    23230100.221
  22965985.977   -15083205.33343 -11574034.72342  22965986.143    22965984.088
  24294420.180    -5972724.29743  -4616735.36642  24294421.801    24294420.253
  22464162.586   -15406441.76443 -11999780.69242  22464163.761    22464161.555
 04  7 20  0 33  0.0000000  0  7G13G23G27G 3G 8G19G 1
  20227859.104   -24526869.36444 -18651323.18242  20227861.267    20227855.692
  21592198.262   -20977872.87443 -16336632.89142  21592199.936    21592193.460
  21428702.731   -22721651.55143 -17661492.56942  21428704.063    21428700.408
  23223565.988   -10540668.53543  -8181970.34942  23223567.494    23223565.656
  22951194.895   -15160932.08143 -11634600.92642  22951195.152    22951192.874
  24278964.561    -6053942.22143  -4680021.85042  24278966.233    24278964.268
  22478712.085   -15329983.79043 -11940203.09942  22478713.308    22478711.018
 04  7 20  0 33 30.0000000  0  7G13G23G27G 3G 8G19G 1
  20226787.868   -24532498.80644 -18655709.75442  20226790.029    20226784.440
  21605533.496   -20907796.13643 -16282027.68642  21605535.121    21605528.557
  21421526.305   -22759364.42744 -17690879.20342  21421527.627    21421523.917
  23217123.800   -10574521.66443  -8208349.35142  23217125.351    23217123.476
  22936434.770   -15238496.33643 -11695040.49342  22936435.058    22936432.608
  24263533.852    -6135029.39643  -4743206.50042  24263535.645    24263533.074
  22493314.247   -15253248.92843 -11880409.75542  22493315.516    22493313.255
 04  7 20  0 34  0.0000000  0  7G13G23G27G 3G 8G19G 1
  20225796.017   -24537710.88744 -18659771.11042  20225798.194    20225792.606
  21618931.981   -20837386.32643 -16227162.92442  21618933.636    21618927.136
  21414383.317   -22796900.85843 -17720128.34742  21414384.685    21414381.069
  23210772.813   -10607895.39143  -8234354.82542  23210774.373    23210772.448
  22921704.007   -15315906.69443 -11755360.15742  22921704.336    22921701.769
  24248127.039    -6215992.09043  -4806294.13742  24248128.660    24248126.093
  22507967.242   -15176247.01743 -11820408.32442  22507968.526    22507966.248
 04  7 20  0 34 30.0000000  0  7G13G23G27G 3G 8G19G 1
  20224884.876   -24542498.74443 -18663501.90242  20224887.066    20224881.497
  21632394.939   -20766638.35243 -16172034.66242  21632396.470    21632390.107
  21407275.029   -22834255.20343 -17749235.61442  21407276.384    21407272.772
  23204514.739   -10640781.95743  -8259980.68142  23204516.274    23204514.435
  22907003.533   -15393156.93743 -11815555.06242  22907003.985    22907001.560
  24232745.970    -6296820.96843  -4869277.53342  24232747.449    24232744.830
  22522672.093   -15098972.77143 -11760194.67742  22522673.381    22522671.028
 04  7 20  0 35  0.0000000  0  7G13G23G27G 3G 8G19G 1
  20224053.952   -24546865.30844 -18666904.41942  20224056.141    20224050.546
  21645921.098   -20695557.32943 -16116646.88042  21645922.716    21645916.399
  21400200.516   -22871431.78243 -17778204.36042  21400201.869    21400198.248
  23198348.985   -10673183.78643  -8285228.79642  23198350.490    23198348.592
  22892333.041   -15470250.96143 -11875628.26442  22892333.425    22892331.034
  24217389.993    -6377517.33443  -4932157.65742  24217391.578    24217389.163
  22537427.789   -15021430.97843 -11699772.55242  22537429.045    22537426.675
 04  7 20  0 35 30.0000000  0  7G13G23G27G 3G 8G19G 1
  20223304.064   -24550805.95544 -18669975.04442  20223306.229    20223300.675
  21659511.476   -20624140.20743 -16060997.22242  21659513.036    21659506.658
  21393160.459   -22908427.05643 -17807031.82042  21393161.846    21393158.123
  23192276.432   -10705095.14143  -8310094.73042  23192277.991    23192276.093
  22877693.042   -15547184.59843 -11935576.46842  22877693.443    22877690.993
  24202060.474    -6458074.44043  -4994929.29842  24202062.055    24202059.836
  22552234.930   -14943618.67343 -11639139.61942  22552236.190    22552233.864
 04  7 20  0 36  0.0000000  0  7G13G23G27G 3G 8G19G 1
  20222635.868   -24554317.42744 -18672711.25442  20222638.025    20222632.425
  21673166.009   -20552385.49243 -16005084.49442  21673167.579    21673161.238
  21386155.341   -22945238.97343 -17835716.40542  21386156.689    21386152.917
  23186298.071   -10736511.95343  -8334575.29942  23186299.569    23186297.700
  22863084.042   -15623955.43343 -11995397.79642  22863084.427    22863081.786
  24186758.443    -6538487.22943  -5057588.43342  24186760.012    24186757.785
  22567093.978   -14865534.42443 -11578294.80242  22567095.250    22567092.879
 04  7 20  0 36 30.0000000  0  7G13G23G27G 3G 8G19G 1
  20222048.522   -24557403.81244 -18675116.22542  20222050.676    20222045.081
  21686883.652   -20480299.01943 -15948913.25642  21686885.218    21686878.967
  21379184.144   -22981872.70543 -17864262.15942  21379185.513    21379181.761
  23180413.121   -10767437.44343  -8358673.03442  23180414.600    23180412.747
  22848505.054   -15700568.04543 -12055095.83942  22848505.426    22848502.657
  24171483.161    -6618757.70043  -5120136.72142  24171484.753    24171482.763
  22582003.600   -14787184.07343 -11517242.62542  22582004.906    22582002.395
 04  7 20  0 37  0.0000000  0  7G13G23G27G 3G 8G19G 1
  20221542.891   -24560061.06244 -18677186.80942  20221545.004    20221539.387
  21700664.821   -20407878.49643 -15892481.72042  21700666.431    21700660.169
  21372247.469   -23018325.44743 -17892666.87842  21372248.827    21372245.112
  23174622.561   -10797866.54943  -8382383.97642  23174624.107    23174622.046
  22833956.602   -15777019.49943 -12114668.32242  22833957.042    22833954.369
  24156236.503    -6698879.67043  -5182569.24942  24156238.020    24156235.984
  22596964.268   -14708565.12343 -11455981.16542  22596965.482    22596963.057
 04  7 20  0 37 30.0000000  0  7G13G23G27G 3G 8G19G 1
  20221118.623   -24562290.71644 -18678924.19742  20221120.767    20221115.108
  21714508.964   -20335127.50943 -15835792.68942  21714510.535    21714504.162
  21365344.692   -23054600.00943 -17920932.75042  21365346.005    21365342.386
  23168926.382   -10827800.37843  -8405708.98042  23168927.904    23168925.820
  22819438.658   -15853311.98243 -12174116.93342  22819438.955    22819436.356
  24141017.970    -6778852.87843  -5244885.86342  24141019.688    24141017.503
  22611975.400   -14629680.96543 -11394513.03442  22611976.580    22611974.323
 04  7 20  0 38  0.0000000  0  7G13G23G27G 3G 8G19G 1
  20220775.798   -24564092.06344 -18680327.83142  20220777.955    20220772.336
  21728415.724   -20262046.98443 -15778846.87042  21728417.334    21728410.974
  21358475.727   -23090696.63443 -17949059.97842  21358477.045    21358473.394
  23163324.777   -10857237.35743  -8428646.81742  23163326.296    23163324.357
  22804951.016   -15929445.40743 -12233441.61042  22804951.308    22804948.633
  24125828.125    -6858674.57143  -5307084.41242  24125829.932    24125827.960
  22627036.922   -14550532.51443 -11332838.96642  22627038.123    22627035.858
 04  7 20  0 38 30.0000000  0  8G13G10G23G27G 3G 8G19G 1
  20220516.092   -24565456.87244 -18681391.31642  20220518.249    20220512.599
  24615370.546    -1718843.17953  -1309354.59952  24615371.947    24615371.333
  21742386.429   -20188630.48343 -15721639.24942  21742388.004    21742381.770
  21351641.909   -23126608.63143 -17977043.32842  21351643.240    21351639.568
  23157819.195   -10886168.73143  -8451190.70342  23157820.842    23157818.813
  22790494.945   -16005412.27843 -12292636.51142  22790495.271    22790492.588
  24110669.147    -6938334.56143  -5369156.96542  24110670.835    24110669.137
  22642149.887   -14471113.55143 -11270954.12242  22642151.071    22642148.828
 04  7 20  0 39  0.0000000  0  8G13G10G23G27G 3G 8G19G 1
  20220337.824   -24566393.56744 -18682121.19542  20220339.973    20220334.395
  24599208.972    -1803773.66443  -1375534.13142  24599210.255    24599209.226
  21756419.123   -20114888.16843 -15664177.74842  21756420.626    21756414.421
  21344841.486   -23162344.97943 -18004889.80642  21344842.822    21344839.180
  23152408.462   -10914601.77343  -8473346.26542  23152410.050    23152408.054
  22776068.814   -16081221.39843 -12351708.47242  22776069.154    22776066.606
  24095539.439    -7017838.94143  -5431108.27642  24095541.134    24095539.732
  22657312.416   -14391433.80343 -11208866.07242  22657313.666    22657311.414
 04  7 20  0 39 30.0000000  0  8G13G10G23G27G 3G 8G19G 1
  20220242.707   -24566893.39344 -18682510.66642  20220244.895    20220239.253
  24583114.065    -1888351.73143  -1441439.03042  24583115.756    24583114.449
  21770515.063   -20040813.16243 -15606457.00842  21770516.580    21770510.296
  21338075.816   -23197898.24143 -18032593.63342  21338077.137    21338073.602
  23147094.392   -10942526.94043  -8495106.10642  23147095.917    23147093.993
  22761674.147   -16156864.71843 -12410651.22442  22761674.543    22761672.048
  24080441.670    -7097176.94743  -5492929.94442  24080443.211    24080442.131
  22672525.999   -14311486.30943 -11146569.39642  22672527.290    22672525.061
 04  7 20  0 40  0.0000000  0  8G13G10G23G27G 3G 8G19G 1
  20220229.673   -24566961.87844 -18682564.02342  20220231.859    20220226.198
  24567085.820    -1972581.07643  -1507072.18242  24567087.397    24567085.973
  21784673.167   -19966412.51443 -15548482.52642  21784674.673    21784668.215
  21331343.895   -23233274.98944 -18060159.91642  21331345.169    21331341.600
  23141876.059   -10969949.18443  -8516474.05042  23141877.616    23141875.533
  22747309.965   -16232348.33443 -12469469.54442  22747310.297    22747307.742
  24065375.307    -7176352.23943  -5554624.81342  24065376.799    24065375.375
  22687789.299   -14231278.32843 -11084069.73642  22687790.482    22687788.307
 04  7 20  0 40 30.0000000  0  8G13G10G23G27G 3G 8G19G 1
  20220299.409   -24566595.36244 -18682278.41842  20220301.557    20220295.907
  24551125.188    -2056456.92343  -1572429.88142  24551126.459    24551124.695
  21798893.533   -19891684.65843 -15490253.05742  21798895.034    21798888.577
  21324645.960   -23268472.88443 -18087586.83042  21324647.260    21324643.630
  23136754.415   -10996864.10343  -8537446.66742  23136755.859    23136753.818
  22732976.755   -16307669.81243 -12528161.52842  22732977.082    22732974.330
  24050340.727    -7255359.24143  -5616188.54642  24050342.304    24050340.555
  22703102.367   -14150808.25543 -11021365.84342  22703103.596    22703101.508
 04  7 20  0 41  0.0000000  0  8G13G10G23G27G 3G 8G19G 1
  20220452.538   -24565790.55844 -18681651.29342  20220454.698    20220449.065
  24535232.175    -2139974.13043  -1637508.15442  24535233.522    24535231.920
  21813176.190   -19816627.95143 -15431767.33242  21813177.704    21813171.618
  21317982.486   -23303489.65244 -18114872.60142  21317983.800    21317980.118
  23131729.857   -11023267.29743  -8558020.54842  23131731.425    23131729.459
  22718675.176   -16382826.14443 -12586724.83042  22718675.397    22718672.483
  24035339.428    -7334192.21043  -5677616.65742  24035340.985    24035338.840
  22718465.565   -14070074.07343 -10958456.15242  22718466.896    22718464.803
 04  7 20  0 41 30.0000000  0  8G13G10G23G27G 3G 8G19G 1
  20220688.722   -24564549.70344 -18680684.38842  20220690.848    20220685.163
  24519407.376    -2223133.53843  -1702307.60442  24519408.562    24519407.174
  21827520.771   -19741246.56943 -15373028.61442  21827522.302    21827516.219
  21311352.874   -23338328.70344 -18142019.88742  21311354.208    21311350.370
  23126802.613   -11049160.68543  -8578197.17942  23126804.097    23126802.142
  22704404.154   -16457820.18043 -12645161.66742  22704404.476    22704401.582
  24020371.020    -7412851.71743  -5738909.63442  24020372.600    24020370.061
  22733878.288   -13989080.01243 -10895343.96542  22733879.582    22733877.533
 04  7 20  0 42  0.0000000  0  8G13G10G23G27G 3G 8G19G 1
  20221008.676   -24562868.58744 -18679374.42042  20221010.809    20221005.072
  24503652.078    -2305929.21543  -1766823.61842  24503653.164    24503651.532
  21841927.799   -19665537.98043 -15314034.95842  21841929.329    21841922.962
  21304757.662   -23372986.63244 -18169026.04242  21304759.041    21304755.027
  23121973.112   -11074539.15443  -8597972.56942  23121974.626    23121972.709
  22690164.656   -16532648.46243 -12703469.34842  22690164.968    22690162.147
  24005436.516    -7491331.12743  -5800062.28542  24005438.223    24005435.668
  22749340.995   -13907823.49443 -10832027.24142  22749342.275    22749340.116
 04  7 20  0 42 30.0000000  0  8G13G10G23G27G 3G 8G19G 1
  20221412.182   -24560748.24044 -18677722.19642  20221414.286    20221408.530
  24487965.775    -2388360.68443  -1831055.83942  24487967.062    24487965.189
  21856396.312   -19589505.05343 -15254788.55842  21856397.852    21856391.607
  21298196.438   -23407465.61743 -18195892.76742  21298197.847    21298193.782
  23117241.654   -11099403.32643  -8617347.20742  23117243.055    23117241.043
  22675956.322   -16607312.51843 -12761649.06442  22675956.708    22675953.974
  23990536.456    -7569629.63243  -5861073.97142  23990538.176    23990535.848
  22764853.004   -13826307.24743 -10768508.12742  22764854.375    22764852.325
 04  7 20  0 43  0.0000000  0  8G13G10G23G27G 3G 8G19G 1
  20221899.056   -24558189.57244 -18675728.42342  20221901.174    20221895.432
  24472349.008    -2470426.29843  -1895002.99742  24472350.112    24472348.535
  21870926.096   -19513149.81543 -15195290.99642  21870927.614    21870921.669
  21291669.159   -23441766.87443 -18222621.00042  21291670.516    21291666.523
  23112607.993   -11123752.97543  -8636320.90942  23112609.488    23112607.260
  22661779.347   -16681813.55143 -12819701.74142  22661779.649    22661776.840
  23975671.452    -7647745.13943  -5921943.04242  23975673.006    23975670.485
  22780413.956   -13744533.24343 -10704788.17542  22780415.328    22780413.506
 04  7 20  0 43 30.0000000  0  8G13G10G23G27G 3G 8G19G 1
  20222469.887   -24555189.71044 -18673390.86942  20222472.010    20222466.353
  24456802.626    -2552122.58143  -1958662.36242  24456803.824    24456802.184
  21885517.502   -19436472.00743 -15135542.10042  21885518.966    21885513.126
  21285175.754   -23475889.56243 -18249210.09642  21285177.111    21285173.237
  23108072.971   -11147584.95843  -8654891.28142  23108074.401    23108072.292
  22647633.462   -16756149.77643 -12877625.99742  22647633.871    22647631.018
  23960841.811    -7725673.64743  -5982666.42942  23960843.427    23960840.822
  22796024.219   -13662501.02043 -10640867.04142  22796025.587    22796023.780
 04  7 20  0 44  0.0000000  0  8G13G10G23G27G 3G 8G19G 1
  20223124.778   -24551748.07644 -18670709.07242  20223126.922    20223121.309
  24441326.924    -2633447.23643  -2022032.13242  24441328.021    24441326.445
  21900169.982   -19359472.93443 -15075542.86642  21900171.501    21900165.494
  21278716.433   -23509833.90144 -18275660.22142  21278717.733    21278713.943
  23103636.498   -11170898.22643  -8673057.42942  23103637.889    23103635.974
  22633519.062   -16830321.09743 -12935421.77042  22633519.392    22633516.523
  23946048.781    -7803412.45643  -6043242.02142  23946050.200    23946047.869
  22811683.464   -13580211.86843 -10576745.66842  22811684.882    22811682.955
 04  7 20  0 44 30.0000000  0  8G13G10G23G27G 3G 8G19G 1
  20223863.719   -24547864.81943 -18667683.16342  20223865.856    20223860.234
  24425922.513    -2714398.53643  -2085110.97742  24425923.587    24425921.928
  21914883.407   -19282154.05343 -15015294.43942  21914884.885    21914878.614
  21272290.810   -23543600.78144 -18301972.05342  21272292.150    21272288.282
  23099299.022   -11193691.96143  -8690818.75942  23099300.415    23099298.438
  22619435.943   -16904328.02743 -12993089.44842  22619436.264    22619433.460
  23931292.069    -7880959.30843  -6103667.99642  23931293.490    23931291.242
  22827391.029   -13497667.21743 -10512425.22542  22827392.497    22827390.721
 04  7 20  0 45  0.0000000  0  8G13G10G23G27G 3G 8G19G 1
  20224686.861   -24543539.33044 -18664312.65542  20224688.974    20224683.355
  24410589.404    -2794974.18643  -2147897.11642  24410590.640    24410588.940
  21929657.438   -19204516.74343 -14954797.89742  21929658.882    21929652.471
  21265898.919   -23577190.49243 -18328145.83342  21265900.272    21265896.322
  23095060.411   -11215964.65243  -8708174.04742  23095061.924    23095060.119
  22605384.258   -16978170.66843 -13050629.08442  22605384.441    22605381.723
  23916572.480    -7958311.38443  -6163942.23742  23916573.754    23916571.376
  22843147.249   -13414868.16543 -10447906.53442  22843148.608    22843146.946
 04  7 20  0 45 30.0000000  0  8G13G10G23G27G 3G 8G19G 1
  20225594.708   -24538768.54444 -18660595.16042  20225596.833    20225591.183
  24395328.857    -2875169.42043  -2210386.84042  24395329.998    24395328.324
  21944492.266   -19126559.33643 -14894051.91142  21944493.723    21944487.399
  21259541.048   -23610600.99344 -18354179.97442  21259542.385    21259538.456
  23090922.025   -11237712.73443  -8725120.57442  23090923.460    23090921.563
  22591364.248   -17051846.43943 -13108038.70142  22591364.411    22591361.598
  23901890.954    -8035463.37143  -6224060.53042  23901892.149    23901889.749
  22858952.139   -13331813.35143 -10383188.55042  22858953.506    22858951.847
 04  7 20  0 46  0.0000000  0  8G13G10G23G27G 3G 8G19G 1
  20226587.832   -24533549.78944 -18656528.60842  20226589.921    20226584.296
  24380141.186    -2954980.03743  -2272576.87242  24380142.388    24380140.792
  21959388.004   -19048281.38443 -14833056.14142  21959389.478    21959383.386
  21253217.543   -23643830.69743 -18380073.23242  21253218.907    21253215.031
  23086883.944   -11258933.04843  -8741655.84142  23086885.437    23086883.338
  22577376.463   -17125353.01543 -13165316.48542  22577376.641    22577373.600
  23887248.202    -8112410.63643  -6284019.34342  23887249.504    23887246.925
  22874805.881   -13248501.85643 -10318270.56942  22874807.292    22874805.648
 04  7 20  0 46 30.0000000  0  8G13G10G23G27G 3G 8G19G 1
  20227665.531   -24527886.69444 -18652115.80742  20227667.618    20227662.002
  24365026.699    -3034407.78543  -2334468.57942  24365027.757    24365025.982
  21974343.849   -18969687.89543 -14771814.50842  21974345.340    21974339.411
  21246927.786   -23676883.85444 -18405828.90942  21246929.110    21246925.204
  23082945.768   -11279628.37243  -8757782.01842  23082947.368    23082945.051
  22563420.031   -17198694.60543 -13222465.71042  22563420.291    22563417.085
  23872644.490    -8189154.11843  -6343819.32242  23872645.802    23872642.995
  22890707.516   -13164938.83943 -10253156.59542  22890708.867    22890707.185
 04  7 20  0 47  0.0000000  0  8G13G10G23G27G 3G 8G19G 1
  20228828.133   -24521777.10944 -18647355.09542  20228830.238    20228824.631
  24349985.579    -3113449.23843  -2396059.24842  24349986.740    24349985.113
  21989359.855   -18890778.71043 -14710326.87942  21989361.332    21989355.281
  21240671.717   -23709759.47944 -18431446.25542  21240673.043    21240669.123
  23079107.990   -11299796.14243  -8773497.12842  23079109.489    23079107.178
  22549495.227   -17271869.66643 -13279485.17142  22549495.516    22549492.268
  23858080.177    -8265690.00943  -6403457.55642  23858081.538    23858078.627
  22906657.033   -13081124.04843 -10187846.43342  22906658.289    22906656.614
 04  7 20  0 47 30.0000000  0  8G13G10G23G27G 3G 8G19G 1
  20230075.762   -24515220.64944 -18642246.17442  20230077.863    20230072.319
  24335018.253    -3192102.68643  -2457347.59542  24335019.392    24335018.041
  22004435.544   -18811555.32843 -14648594.43842  22004437.000    22004430.923
  21234449.306   -23742458.31344 -18456925.85242  21234450.625    21234446.687
  23075370.367   -11319435.44743  -8788800.46542  23075371.978    23075369.879
  22535601.902   -17344878.45443 -13336375.07742  22535602.234    22535599.061
  23843555.614    -8342015.76543  -6462932.03942  23843557.058    23843554.380
  22922654.262   -12997058.89543 -10122341.19842  22922655.555    22922653.514
 04  7 20  0 48  0.0000000  0  8G13G10G23G27G 3G 8G19G 1
  20231408.886   -24508214.88544 -18636787.13742  20231411.020    20231405.446
  24320125.691    -3270363.57843  -2518330.05242  24320126.704    24320125.570
  22019571.267   -18732016.96543 -14586616.54742  22019572.705    22019566.586
  21228261.035   -23774978.45144 -18482266.20042  21228262.344    21228258.327
  23071734.366   -11338543.41643  -8803689.76942  23071735.813    23071733.845
  22521740.812   -17417719.18643 -13393134.02142  22521741.088    22521737.819
  23829072.115    -8418126.47443  -6522238.96942  23829073.499    23829070.893
  22938699.137   -12912742.52243 -10056640.19742  22938700.533    22938698.419
 04  7 20  0 48 30.0000000  0  8G13G10G23G27G 3G 8G19G 1
  20232827.760   -24500758.64744 -18630977.08742  20232829.905    20232824.334
  24305308.193    -3348229.21843  -2579004.49142  24305309.232    24305308.123
  22034766.834   -18652164.29043 -14524393.72742  22034768.296    22034762.202
  21222106.699   -23807319.68144 -18507467.13742  21222108.033    21222104.038
  23068199.940   -11357118.11243  -8818163.51542  23068201.313    23068199.252
  22507912.012   -17490390.67943 -13449761.11742  22507912.238    22507908.834
  23814630.291    -8494018.80643  -6581375.70042  23814631.582    23814628.944
  22954791.631   -12828175.32643  -9990743.75742  22954793.084    22954791.163
 04  7 20  0 49  0.0000000  0  8G13G10G23G27G 3G 8G19G 1
  20234332.527   -24492851.26644 -18624815.49742  20234334.660    20234329.032
  24290566.299    -3425697.27543  -2639369.14142  24290567.314    24290565.935
  22050021.812   -18571998.30443 -14461926.74642  22050023.276    22050017.426
  21215986.327   -23839482.27044 -18532528.86442  21215987.678    21215983.676
  23064766.979   -11375158.43643  -8832220.85842  23064768.463    23064766.300
  22494115.188   -17562892.93543 -13506256.34642  22494115.412    22494112.166
  23800230.437    -8569689.79543  -6640340.00942  23800231.771    23800229.077
  22970931.939   -12743358.48843  -9924652.78042  22970933.331    22970931.497
 04  7 20  0 49 30.0000000  0  8G13G10G23G27G 3G 8G19G 1
  20235923.054   -24484493.04944 -18618302.60242  20235925.209    20235919.597
  24275900.680    -3502765.93143  -2699422.58742  24275901.439    24275899.915
  22065335.937   -18491520.80243 -14399217.03042  22065337.524    22065331.857
  21209899.846   -23871467.02444 -18557452.03142  21209901.209    21209897.113
  23061435.549   -11392663.67143  -8845861.27942  23061437.136    23061435.103
  22480350.465   -17635226.94343 -13562620.46842  22480350.630    22480347.490
  23785872.668    -8645137.50343  -6699130.30142  23785874.309    23785871.683
  22987119.273   -12658293.67443  -9858368.60342  22987120.675    22987119.008
 04  7 20  0 50  0.0000000  0  8G13G10G23G27G 3G 8G19G 1
  20237599.427   -24475683.85944 -18611438.30242  20237601.580    20237595.939
  24261311.390    -3579433.65943  -2759163.63042  24261312.215    24261310.426
  22080709.236   -18410733.70643 -14336266.09842  22080710.804    22080705.145
  21203846.948   -23903274.85244 -18582237.33242  21203848.327    21203844.283
  23058205.873   -11409633.49843  -8859084.52042  23058207.425    23058205.787
  22466617.747   -17707392.18443 -13618853.06142  22466617.979    22466614.910
  23771558.311    -8720359.54143  -6757744.76842  23771559.775    23771557.292
  23003353.524   -12572982.44443  -9791892.37242  23003354.869    23003353.309
 04  7 20  0 50 30.0000000  0  8G13G10G23G27G 3G 8G19G 1
  20239362.063   -24466420.97544 -18604220.47542  20239364.231    20239358.637
  24246799.046    -3655696.22143  -2818588.95742  24246800.086    24246797.957
  22096141.728   -18329636.15743 -14273073.26342  22096143.225    22096137.627
  21197828.095   -23934903.94243 -18606883.36742  21197829.429    21197825.492
  23055079.273   -11426064.69343  -8871888.01442  23055080.796    23055079.027
  22452917.340   -17779387.28143 -13674953.07242  22452917.621    22452914.711
  23757287.762    -8795351.31243  -6816179.78642  23757289.031    23757286.805
  23019634.774   -12487423.89543  -9725223.46542  23019636.075    23019634.610
 04  7 20  0 51  0.0000000  0  8G13G10G23G27G 3G 8G19G 1
  20241210.099   -24456709.49844 -18596653.09242  20241212.251    20241206.674
  24232363.034    -3731557.08843  -2877701.26042  24232364.286    24232362.116
  22111632.072   -18248234.70043 -14209643.60742  22111633.556    22111627.994
  21191842.157   -23966360.09044 -18631394.63442  21191843.467    21191839.587
  23052054.406   -11441961.79243  -8884275.30442  23052055.983    23052053.835
  22439248.484   -17851217.60843 -13730924.71042  22439248.738    22439245.760
  23743060.464    -8870115.36443  -6874437.40642  23743061.785    23743059.387
  23035962.061   -12401624.63743  -9658366.96442  23035963.296    23035961.526
 04  7 20  0 51 30.0000000  0  8G13G10G23G27G 3G 8G19G 1
  20243145.068   -24446540.81744 -18588729.44642  20243147.234    20243141.655
  24218005.492    -3807005.62443  -2936492.27442  24218006.968    24218004.649
  22127181.512   -18166522.46643 -14145971.78842  22127183.089    22127177.506
  21185890.666   -23997635.35843 -18655764.96242  21185891.994    21185888.070
  23049132.651   -11457315.50143  -8896239.18242  23049134.319    23049132.179
  22425612.750   -17922874.57343 -13786761.26442  22425612.914    22425609.742
  23728878.828    -8944640.43943  -6932508.80442  23728880.207    23728877.596
  23052336.359   -12315577.47343  -9591317.29442  23052337.522    23052335.690
 04  7 20  0 52  0.0000000  0  8G13G10G23G27G 3G 8G19G 1
  20245166.595   -24435917.57844 -18580451.60242  20245168.750    20245163.136
  24203726.146    -3882043.20643  -2994963.01342  24203727.594    24203725.530
  22142789.187   -18084503.90943 -14082061.28842  22142790.773    22142785.168
  21179972.919   -24028733.32144 -18679997.11842  21179974.240    21179970.280
  23046313.906   -11472128.07243  -8907781.45342  23046315.481    23046313.445
  22412009.192   -17994361.65743 -13842465.44642  22412009.386    22412006.113
  23714742.568    -9018927.35643  -6990394.60042  23714743.973    23714741.007
  23068756.863   -12229286.91143  -9524077.95942  23068758.008    23068756.158
 04  7 20  0 52 30.0000000  0  8G13G10G23G27G 3G 8G19G 1
  20247274.861   -24424838.29644 -18571818.39942  20247277.013    20247271.413
  24189525.160    -3956666.48743  -3053110.93542  24189526.728    24189524.929
  22158455.188   -18002179.30543 -14017912.30742  22158456.670    22158450.888
  21174089.086   -24059653.15844 -18704090.47642  21174090.434    21174086.441
  23043598.193   -11486397.64243  -8918900.58042  23043599.826    23043597.962
  22398438.234   -18065677.05543 -13898035.85542  22398438.449    22398435.240
  23700652.266    -9092972.37843  -7048091.94042  23700653.772    23700650.018
  23085223.653   -12142753.31743  -9456649.24742  23085224.801    23085223.198
 04  7 20  0 53  0.0000000  0  8G13G10G23G27G 3G 8G19G 1
  20249469.771   -24413304.23044 -18562830.82342  20249471.906    20249466.308
  24175403.550    -4030875.16543  -3110935.80542  24175404.887    24175403.294
  22174178.773   -17919551.58043 -13953527.13342  22174180.225    22174174.271
  21168238.777   -24090396.85844 -18728046.58742  21168240.124    21168236.098
  23040986.166   -11500125.00843  -8929597.19742  23040987.774    23040985.398
  22384899.338   -18136823.43843 -13953474.54542  22384899.613    22384896.550
  23686608.371    -9166774.26043  -7105599.76542  23686609.877    23686605.845
  23101736.220   -12055979.53143  -9389033.37942  23101737.321    23101735.788
 04  7 20  0 53 30.0000000  0  8G13G10G23G27G 3G 8G19G 1
  20251751.776   -24401312.18644 -18553486.37842  20251753.943    20251748.340
  24161362.104    -4104664.18943  -3168433.69542  24161363.120    24161361.819
  22189960.322   -17836619.27143 -13888904.61642  22189961.679    22189955.763
  21162422.413   -24120961.90144 -18751863.48942  21162423.754    21162419.754
  23038477.862   -11513306.45743  -8939868.37042  23038479.561    23038476.921
  22371393.517   -18207797.31543 -14008778.80742  22371393.708    22371390.522
  23672611.687    -9240327.45843  -7162913.84542  23672613.093    23672609.071
  23118294.701   -11968963.77743  -9321228.98142  23118295.709    23118294.303
 04  7 20  0 54  0.0000000  0  8G13G10G23G27G 3G 8G19G 1
  20254120.582   -24388863.71343 -18543786.27142  20254122.759    20254117.184
  24147400.227    -4178033.65743  -3225604.64842  24147401.397    24147400.326
  22205799.038   -17753385.87743 -13824047.47442  22205800.388    22205794.642
  21156639.613   -24151350.79344 -18775543.12742  21156640.963    21156636.966
  23036073.381   -11525943.15743  -8949715.10742  23036074.906    23036072.457
  22357920.106   -18278600.70143 -14063950.22442  22357920.286    22357916.923
  23658662.058    -9313631.63143  -7220033.86142  23658663.510    23658659.843
  23134898.537   -11881709.51343  -9253238.72142  23134899.643    23134898.259
 04  7 20  0 54 30.0000000  0  8G13G10G23G27G 3G 8G19G 1
  20256576.188   -24375959.54944 -18533731.08142  20256578.336    20256572.783
  24133518.691    -4250982.00543  -3282447.47642  24133519.735    24133518.505
  22221694.582   -17669853.64543 -13758957.48342  22221695.958    22221690.279
  21150890.030   -24181564.61044 -18799086.34242  21150891.365    21150887.433
  23033772.161   -11538035.15343  -8959137.43142  23033773.752    23033771.462
  22344478.878   -18349234.24643 -14118989.28642  22344479.100    22344475.711
  23644760.455    -9386684.69443  -7276958.21742  23644761.721    23644758.417
  23151547.685   -11794218.57743  -9185064.05542  23151548.847    23151547.449
 04  7 20  0 55  0.0000000  0  8G13G10G23G27G 3G 8G19G 1
  20259119.727   -24362593.14444 -18523315.70942  20259121.875    20259116.290
  24119718.697    -4323501.42943  -3338956.06642  24119719.884    24119718.328
  22237648.138   -17586017.60543 -13693630.76642  22237649.485    22237643.694
  21145175.008   -24211597.49044 -18822488.58642  21145176.318    21145172.300
  23031576.141   -11549575.47743  -8968129.89442  23031577.624    23031575.368
  22331071.262   -18419692.19143 -14173891.51942  22331071.431    22331068.011
  23630908.356    -9459477.71543  -7333679.91742  23630909.550    23630906.497
  23168242.700   -11706486.24543  -9116701.27342  23168243.893    23168242.705
 04  7 20  0 55 30.0000000  0  8G13G10G23G27G 3G 8G19G 1
  20261750.924   -24348766.55043 -18512541.74242  20261753.055    20261747.410
  24106000.305    -4395592.44943  -3395130.81342  24106001.538    24105999.778
  22253658.631   -17501881.87043 -13628070.51242  22253660.027    22253654.217
  21139493.871   -24241452.33344 -18845752.08542  21139495.159    21139491.147
  23029484.747   -11560566.32343  -8976694.15542  23029486.275    23029483.926
  22317696.563   -18489976.75043 -14228658.64342  22317696.780    22317693.390
  23617105.838    -9532010.69343  -7390198.98142  23617107.004    23617103.980
  23184982.859   -11618516.44243  -9048153.46142  23184983.996    23184983.074
 04  7 20  0 56  0.0000000  0  8G13G10G23G27G 3G 8G19G 1
  20264468.431   -24334485.86244 -18501413.94142  20264470.590    20264464.955
  24092362.764    -4467258.86043  -3450974.70842  24092363.980    24092362.111
  22269724.906   -17417453.86243 -13562282.51042  22269726.308    22269720.443
  21133845.309   -24271135.57544 -18868881.86942  21133846.636    21133842.649
  23027496.919   -11571012.55143  -8984834.03342  23027498.508    23027495.973
  22304353.569   -18560094.32643 -14283295.66542  22304353.835    22304350.462
  23603352.084    -9604286.77043  -7446517.88142  23603353.340    23603350.334
  23201766.912   -11530316.43943  -8979426.28042  23201767.986    23201767.083
 04  7 20  0 56 30.0000000  0  8G13G10G23G27G 3G 8G19G 1
  20267274.471   -24319739.86943 -18489923.56242  20267276.620    20267271.037
  24078808.287    -4538487.97243  -3506477.85842  24078809.528    24078807.727
  22285848.458   -17332724.34043 -13496259.55642  22285849.955    22285844.065
  21128231.397   -24300636.83844 -18891869.85242  21128232.705    21128228.632
  23025614.938   -11580902.94143  -8992540.77642  23025616.455    23025613.623
  22291044.431   -18630034.17043 -14337794.23042  22291044.694    22291041.346
  23589649.447    -9676293.04143  -7502626.55242  23589650.926    23589647.961
  23218596.587   -11441876.88943  -8910512.44542  23218597.639    23218596.558
 04  7 20  0 57  0.0000000  0  8G13G10G23G27G 3G 8G19G 1
  20270168.241   -24304533.11044 -18478074.15142  20270170.391    20270164.812
  24065336.556    -4609283.05743  -3561642.78942  24065337.661    24065335.882
  22302028.121   -17247699.37143 -13430006.39042  22302029.593    22302023.883
  21122651.108   -24329961.31144 -18914720.08342  21122652.403    21122648.313
  23023837.726   -11590241.90943  -8999817.86542  23023839.319    23023836.486
  22277768.154   -18699800.47543 -14392157.54242  22277768.463    22277765.388
  23575997.932    -9748031.33543  -7558526.44842  23575999.445    23575996.585
  23235470.373   -11353204.01543  -8841416.80342  23235471.406    23235470.548
 04  7 20  0 57 30.0000000  0  8G13G10G23G27G 3G 8G19G 1
  20273149.189   -24288868.04244 -18465867.61842  20273151.351    20273145.778
  24051947.326    -4679644.52443  -3616469.84942  24051948.449    24051946.521
  22318263.385   -17162383.11443 -13363526.24942  22318264.794    22318259.101
  21117103.870   -24359111.76744 -18937434.71742  21117105.204    21117101.141
  23022164.912   -11599030.98843  -9006666.50042  23022166.592    23022164.123
  22264524.416   -18769396.53643 -14446388.17942  22264524.642    22264521.753
  23562397.590    -9819501.82143  -7614217.64642  23562398.992    23562396.123
  23252387.679   -11264301.65043  -8772142.32142  23252388.662    23252388.198
 04  7 20  0 58  0.0000000  0  8G13G10G23G27G 3G 8G19G 1
  20276218.900   -24272736.85944 -18453297.88242  20276221.041    20276215.444
  24038642.386    -4749562.53643  -3670951.37642  24038643.521    24038641.574
  22334555.305   -17076769.19543 -13296814.17442  22334556.766    22334550.927
  21111591.249   -24388080.80644 -18960007.99742  21111592.582    21111588.476
  23020598.786   -11607262.12143  -9013080.36442  23020600.270    23020597.907
  22251314.697   -18838814.26143 -14500479.85842  22251314.858    22251311.933
  23548850.170    -9890693.99543  -7669692.00042  23548851.614    23548848.498
  23269350.276   -11175163.41043  -8702684.05842  23269351.288    23269350.680
 04  7 20  0 58 30.0000000  0  8G13G10G23G27G 3G 8G19G 1
  20279376.058   -24256146.11544 -18440370.05342  20279378.179    20279372.555
  24025420.752    -4819042.72743  -3725091.73142  24025421.875    24025419.973
  22350902.065   -16990866.46643 -13229877.05242  22350903.587    22350897.826
  21106111.655   -24416876.26544 -18982446.01842  21106112.961    21106108.920
  23019137.396   -11614942.02543  -9019064.70442  23019138.901    23019136.447
  22238137.324   -18908061.36643 -14554438.60642  22238137.526    22238134.493
  23535354.897    -9961612.59443  -7724953.17542  23535356.280    23535352.873
  23286356.368   -11085797.86543  -8633048.67342  23286357.349    23286356.358
 04  7 20  0 59  0.0000000  0  9G13G10G23G27G28G 3G 8G19G 1
  20282620.796   -24239095.11344 -18427083.57742  20282622.900    20282617.259
  24012282.984    -4888082.31443  -3778888.75942  24012284.139    24012282.115
  22367303.650   -16904675.59943 -13162715.38642  22367305.166    22367299.566
  21100665.172   -24445497.70244 -19004748.43542  21100666.478    21100662.492
  24765657.102    -3755167.47153  -2886224.91752  24765659.251    24765660.338
  23017781.191   -11622069.37543  -9024618.45442  23017782.678    23017779.982
  22224992.748   -18977136.81443 -14608263.60242  22224992.881    22224989.770
  23521912.245   -10032254.35543  -7779998.64942  23521913.598    23521909.919
  23303405.310   -10996205.65743  -8563236.67342  23303406.236    23303405.298
 04  7 20  0 59 30.0000000  0  9G13G10G23G27G28G 3G 8G19G 1
  20285954.566   -24221575.91143 -18413432.28142  20285956.690    20285951.025
  23999230.853    -4956671.53243  -3832334.87742  23999232.047    23999229.811
  22383761.452   -16818190.01443 -13095324.10542  22383762.876    22383757.351
  21095253.328   -24473937.18844 -19026909.08542  21095254.599    21095250.637
  24745662.898    -3860235.62743  -2968095.94942  24745665.201    24745666.538
  23016531.787   -11628635.61843  -9029734.98542  23016533.098    23016530.497
  22211882.419   -19046032.33943 -14661948.40742  22211882.582    22211879.273
  23508524.212   -10102608.53243  -7834820.02742  23508525.613    23508521.807
  23320498.549   -10906380.17843  -8493242.88942  23320499.621    23320498.533
 04  7 20  1  0  0.0000000  0  9G13G10G23G27G28G 3G 8G19G 1
  20289376.907   -24203591.38643 -18399418.38342  20289379.015    20289373.332
  23986264.188    -5024811.73443  -3885431.07942  23986265.375    23986263.076
  22400274.274   -16731414.68943 -13027707.03942  22400275.696    22400270.266
  21089875.395   -24502198.61944 -19048930.97242  21089876.647    21089872.631
  24725686.747    -3965208.62043  -3049892.81542  24725689.019    24725690.816
  23015388.246   -11634643.47343  -9034416.40642  23015389.832    23015387.151
  22198805.688   -19114751.29143 -14715495.59642  22198805.869    22198802.394
  23495190.849   -10172675.98843  -7889417.98742  23495192.237    23495188.191
  23337635.034   -10816326.19043  -8423071.01742  23337636.188    23337635.326
 04  7 20  1  0 30.0000000  0  9G13G10G23G27G28G 3G 8G19G 1
  20292887.520   -24185143.00643 -18385043.04042  20292889.626    20292883.976
  23973383.055    -5092502.53543  -3938177.10042  23973384.128    23973381.998
  22416841.785   -16644352.47543 -12959866.41742  22416843.193    22416837.699
  21084531.042   -24530283.58944 -19070815.35742  21084532.290    21084528.163
  24705728.814    -4070086.68043  -3131615.69242  24705731.029    24705732.783
  23014351.111   -11640093.91443  -9038663.48742  23014352.536    23014350.042
  22185762.199   -19183295.49843 -14768906.61542  22185762.389    22185758.768
  23481912.169   -10242455.50543  -7943791.52542  23481913.585    23481909.464
  23354814.860   -10726046.50843  -8352723.34042  23354815.970    23354814.994
 04  7 20  1  1  0.0000000  0  9G13G10G23G27G28G 3G 8G19G 1
  20296486.494   -24166230.43644 -18370305.98842  20296488.592    20296482.959
  23960587.702    -5159741.93843  -3990571.38242  23960588.793    23960586.770
  22433463.564   -16557004.80143 -12891803.35742  22433464.965    22433459.432
  21079220.087   -24558192.40944 -19092562.47742  21079221.370    21079217.283
  24685789.550    -4174867.94043  -3213263.13542  24685791.564    24685793.125
  23013419.797   -11644986.51443  -9042475.90942  23013421.473    23013419.168
  22172751.731   -19251664.78743 -14822181.33742  22172751.983    22172748.414
  23468688.969   -10311944.31143  -7997938.54642  23468690.318    23468686.005
  23372037.470   -10635542.32743  -8282200.72342  23372038.608    23372037.424
 04  7 20  1  1 30.0000000  0  9G13G10G23G27G28G 3G 8G19G 1
  20300174.301   -24146851.06244 -18355205.19442  20300176.382    20300170.804
  23947879.135    -5226525.25243  -4042610.26642  23947880.239    23947878.243
  22450139.603   -16469370.53243 -12823516.97242  22450141.041    22450135.697
  21073943.227   -24585922.62844 -19114170.44642  21073944.476    21073940.477
  24665869.418    -4279548.30443  -3294831.97242  24665871.177    24665872.858
  23012595.711   -11649318.00543  -9045851.08442  23012597.201    23012595.085
  22159775.168   -19319856.75543 -14875317.90142  22159775.350    22159771.904
  23455521.803   -10381137.16943  -8051854.93642  23455523.305    23455518.980
  23389303.134   -10544812.40843  -8211502.24342  23389304.264    23389303.000
 04  7 20  1  2  0.0000000  0  9G13G10G23G27G28G 3G 8G19G 1
  20303951.334   -24127002.58043 -18339738.85542  20303953.418    20303947.900
  23935258.046    -5292849.03943  -4094291.08242  23935259.204    23935257.162
  22466870.359   -16381449.41643 -12755007.07642  22466871.759    22466866.593
  21068700.553   -24613472.71744 -19135638.04842  21068701.833    21068697.973
  24645968.855    -4384124.53343  -3376319.67842  24645970.654    24645972.388
  23011878.462   -11653086.44743  -9048787.53042  23011880.078    23011877.883
  22146832.993   -19387868.73343 -14928314.22942  22146833.161    22146829.801
  23442411.722   -10450029.81443  -8105537.43242  23442413.278    23442409.224
  23406611.610   -10453856.34443  -8140627.51742  23406612.886    23406611.566
 04  7 20  1  2 30.0000000  0  9G13G10G23G27G28G 3G 8G19G 1
  20307816.847   -24106689.13343 -18323910.20742  20307818.917    20307813.466
  23922724.187    -5358715.44243  -4145615.49942  23922725.236    23922723.074
  22483654.979   -16293246.79043 -12686277.84342  22483656.322    22483650.968
  21063491.430   -24640847.15344 -19156968.78142  21063492.688    21063488.780
  24626087.975    -4488599.12843  -3457728.20642  24626089.676    24626091.244
  23011267.944   -11656295.43043  -9051288.03642  23011269.415    23011267.116
  22133923.989   -19455705.56743 -14981174.08042  22133924.185    22133920.983
  23429358.485   -10518623.78743  -8158987.19142  23429360.089    23429356.422
  23423962.015   -10362679.55443  -8069580.79442  23423963.322    23423961.989
 04  7 20  1  3  0.0000000  0  9G13G10G23G27G28G 3G 8G19G 1
  20311770.474   -24085912.86044 -18307720.92242  20311772.543    20311767.131
  23910277.213    -5424124.78543  -4196583.75842  23910278.226    23910276.004
  22500492.284   -16204766.63643 -12617332.34142  22500493.706    22500488.065
  21058315.250   -24668048.38644 -19178164.54242  21058316.538    21058312.530
  24606226.434    -4592973.05543  -3539058.29342  24606228.023    24606229.400
  23010763.428   -11658946.88343  -9053354.07042  23010764.923    23010762.488
  22121047.894   -19523369.24243 -15033899.00342  22121048.045    22121044.957
  23416362.501   -10586918.55043  -8212203.80942  23416364.001    23416360.423
  23441353.617   -10271285.81243  -7998365.00542  23441354.909    23441353.629
 04  7 20  1  3 30.0000000  0  9G13G10G23G27G28G 3G 8G19G 1
  20315814.289   -24064662.43244 -18291162.15842  20315816.391    20315810.975
  23897919.377    -5489063.95643  -4247185.64042  23897920.592    23897918.431
  22517384.077   -16115999.05643 -12548162.87642  22517385.519    22517379.891
  21053174.104   -24695065.37844 -19199216.73842  21053175.386    21053171.328
  24586386.350    -4697233.35243  -3620299.77242  24586387.848    24586389.414
  23010367.141   -11661028.82243  -9054976.34542  23010368.644    23010366.201
  22108206.919   -19590848.04943 -15086479.86442  22108207.139    22108204.046
  23403425.893   -10654900.33143  -8265176.53742  23403427.405    23403423.919
  23458788.618   -10179665.13143  -7926972.35542  23458789.798    23458788.619
 04  7 20  1  4  0.0000000  0  9G13G10G23G27G28G 3G 8G19G 1
  20319945.862   -24042951.01743 -18274244.19142  20319947.950    20319942.559
  23885648.998    -5553544.70743  -4297430.31242  23885650.105    23885648.210
  22534327.846   -16026959.11843 -12478781.17342  22534329.288    22534323.683
  21048065.382   -24721911.87144 -19220136.08042  21048066.682    21048062.616
  24566565.454    -4801392.12443  -3701462.19142  24566567.087    24566568.637
  23010076.902   -11662554.59043  -9056165.23442  23010078.380    23010075.765
  22095398.823   -19658156.03743 -15138927.59942  22095398.973    22095395.701
  23390546.762   -10722579.89443  -8317913.81542  23390548.297    23390544.934
  23476263.983   -10087832.55043  -7855414.59742  23476265.140    23476264.075
 04  7 20  1  4 30.0000000  0  9G13G10G23G27G28G 3G 8G19G 1
  20324166.941   -24020769.04343 -18256959.54742  20324169.041    20324163.676
  23873468.218    -5617555.39643  -4347308.72642  23873469.119    23873467.518
  22551325.180   -15937638.55343 -12409180.81242  22551326.636    22551320.977
  21042990.945   -24748578.38544 -19240915.17542  21042992.232    21042988.145
  24546766.019    -4905438.02943  -3782536.66242  24546767.867    24546768.977
  23009894.353   -11663513.91343  -9056912.75242  23009895.802    23009893.301
  22082625.188   -19725283.16843 -15191234.40042  22082625.290    22082621.732
  23377727.549   -10789945.04143  -8370406.07942  23377729.112    23377725.675
  23493781.230    -9995779.61843  -7783685.12442  23493782.418    23493781.394
 04  7 20  1  5  0.0000000  0  9G13G10G23G27G28G 3G 8G19G 1
  20328477.553   -23998116.57643 -18239308.28342  20328479.638    20328474.265
  23861376.966    -5681094.67943  -4396819.78742  23861377.953    23861376.434
  22568375.494   -15848039.07143 -12339363.10042  22568377.009    22568371.222
  21037950.673   -24775065.28944 -19261554.31542  21037951.972    21037947.865
  24526988.430    -5009369.73143  -3863522.12842  24526990.321    24526991.043
  23009819.581   -11663906.88343  -9057218.95942  23009821.032    23009818.516
  22069885.789   -19792229.42443 -15243400.28542  22069885.923    22069882.213
  23364968.796   -10856993.18443  -8422651.29142  23364970.227    23364966.491
  23511340.145    -9903507.93143  -7711785.20842  23511341.343    23511340.211
 04  7 20  1  5 30.0000000  0  9G13G10G23G27G28G 3G 8G19G 1
  20332877.385   -23974995.11244 -18221291.57142  20332879.472    20332874.145
  23849375.514    -5744162.23343  -4445963.30342  23849376.469    23849374.841
  22585478.269   -15758163.95843 -12269330.62142  22585479.800    22585474.058
  21032944.083   -24801374.62844 -19282055.09142  21032945.397    21032941.402
  24507232.306    -5113187.53243  -3944418.87742  24507234.309    24507234.873
  23009852.168   -11663734.96643  -9057084.97242  23009853.607    23009851.225
  22057180.310   -19858996.61543 -15295426.64342  22057180.482    22057176.827
  23352270.373   -10923723.62243  -8474648.96042  23352271.749    23352267.812
  23528939.922    -9811020.69243  -7639717.32642  23528941.121    23528939.994
 04  7 20  1  6  0.0000000  0  9G13G10G23G27G28G 3G 8G19G 1
  20337366.177   -23951406.60244 -18202910.93042  20337368.271    20337362.844
  23837463.624    -5806758.38843  -4494739.47542  23837464.580    23837463.129
  22602632.917   -15668016.61843 -12199085.99942  22602634.436    22602628.678
  21027970.991   -24827508.26344 -19302418.96142  21027972.309    21027968.324
  24487497.682    -5216891.79243  -4025227.12942  24487499.715    24487500.489
  23009992.093   -11662999.69743  -9056512.02442  23009993.545    23009991.077
  22044508.445   -19925586.49643 -15347314.82442  22044508.683    22044505.142
  23339632.664   -10990135.62943  -8526398.48642  23339634.030    23339629.669
  23546579.734    -9718321.10843  -7567484.00042  23546581.047    23546580.239
 04  7 20  1  6 30.0000000  0  9G13G10G23G27G28G 3G 8G19G 1
  20341944.800   -23927345.99144 -18184162.42142  20341946.881    20341941.425
  23825642.917    -5868876.52943  -4543143.17442  23825643.848    23825642.180
  22619839.988   -15577593.76843 -12128626.71442  22619841.520    22619835.700
  21023032.193   -24853461.74444 -19322642.44142  21023033.484    21023029.550
  24467785.997    -5320476.25843  -4105942.05942  24467787.850    24467788.871
  23010240.205   -11661695.93943  -9055496.09042  23010241.613    23010239.114
  22031871.594   -19991993.95243 -15399060.84442  22031871.793    22031868.182
  23327056.924   -11056221.78843  -8577894.12142  23327058.341    23327053.686
  23564260.826    -9625405.96043  -7495082.71042  23564262.097    23564261.590
 04  7 20  1  7  0.0000000  0  9G13G10G23G27G28G 3G 8G19G 1
  20346612.861   -23902814.98443 -18165047.36042  20346614.956    20346609.547
  23813913.047    -5930516.27443  -4591174.12742  23813914.071    23813912.322
  22637098.836   -15486898.48243 -12057955.14142  22637100.377    22637094.488
  21018127.334   -24879236.72944 -19342726.83542  21018128.651    21018124.721
  24448097.017    -5423940.96343  -4186563.68242  24448098.831    24448099.971
  23010595.989   -11659825.32143  -9054038.48042  23010597.438    23010595.013
  22019269.025   -20058220.80043 -15450666.12642  22019269.226    22019265.490
  23314543.251   -11121981.06743  -8629135.05842  23314544.606    23314540.098
  23581982.473    -9532278.02043  -7422515.59242  23581983.569    23581983.295
 04  7 20  1  7 30.0000000  0  9G13G10G23G27G28G 3G 8G19G 1
  20351369.680   -23877817.88744 -18145569.11442  20351371.770    20351366.354
  23802274.012    -5991680.37143  -4638834.43242  23802274.848    23802273.076
  22654408.276   -15395936.53843 -11987075.78542  22654409.801    22654404.075
  21013255.595   -24904837.98244 -19362675.84142  21013256.914    21013252.884
  24428430.488    -5527288.68743  -4267094.12342  24428432.396    24428433.141
  23011059.015   -11657391.94443  -9052142.30142  23011060.401    23011057.996
  22006699.876   -20124271.36843 -15502134.06842  22006700.091    22006696.363
  23302091.354   -11187415.33743  -8680122.73542  23302092.708    23302088.348
  23599743.571    -9438943.09543  -7349787.20142  23599744.499    23599744.299
 04  7 20  1  8  0.0000000  0  9G13G10G23G27G28G 3G 8G19G 1
  20356216.292   -23852348.62444 -18125722.95042  20356218.403    20356213.028
  23790726.988    -6052360.90343  -4686117.92842  23790727.914    23790725.901
  22671769.315   -15304703.65143 -11915985.29442  22671770.826    22671765.206
  21008418.054   -24930259.56844 -19382484.86442  21008419.386    21008415.260
  24408787.665    -5630511.88443  -4347527.54542  24408789.611    24408789.890
  23011630.410   -11654389.45843  -9049802.70942  23011631.863    23011629.464
  21994165.608   -20190139.05043 -15553459.51642  21994165.838    21994162.186
  23289703.059   -11252516.08243  -8730850.50942  23289704.378    23289700.087
  23617545.052    -9345396.68643  -7276894.02542  23617546.032    23617545.734
 04  7 20  1  8 30.0000000  0  9G13G10G23G27G28G 3G 8G19G 1
  20361152.774   -23826407.46144 -18105509.06842  20361154.878    20361149.472
  23779272.128    -6112556.55743  -4733023.60342  23779273.003    23779270.969
  22689181.468   -15213201.63143 -11844685.06942  22689182.979    22689177.589
  21003614.632   -24955501.86944 -19402154.17542  21003615.940    21003611.851
  24389168.536    -5733609.50643  -4427863.12542  24389170.632    24389170.467
  23012310.070   -11650818.02343  -9047019.77542  23012311.494    23012309.089
  21981666.181   -20255824.64743 -15604643.04742  21981666.350    21981662.780
  23277378.621   -11317280.87243  -8781316.50542  23277380.092    23277375.781
  23635386.540    -9251640.44343  -7203837.32642  23635387.575    23635387.023
 04  7 20  1  9  0.0000000  0  9G13G10G23G27G28G 3G 8G19G 1
  20366178.149   -23799998.89843 -18084930.98442  20366180.256    20366174.877
  23767908.978    -6172269.68743  -4779553.27342  23767909.835    23767908.034
  22706643.854   -15121436.24643 -11773179.64442  22706645.333    22706640.092
  20998844.342   -24980569.43444 -19421687.32942  20998845.670    20998841.665
  24369572.943    -5836584.39843  -4508103.08742  24369575.074    24369574.715
  23013096.988   -11646681.93143  -9043796.83742  23013098.454    23013096.330
  21969200.572   -20321332.11043 -15655687.76742  21969200.777    21969197.150
  23265117.831   -11381711.44943  -8831522.06342  23265119.353    23265114.990
  23653266.840    -9157679.98143  -7130621.51542  23653267.898    23653267.345
 04  7 20  1  9 30.0000000  0  9G13G10G23G27G28G 3G 8G19G 1
  20371294.127   -23773114.12543 -18063981.82342  20371296.236    20371290.841
  23756639.697    -6231490.28943  -4825699.13542  23756640.588    23756638.863
  22724157.716   -15029400.56743 -11701463.59642  22724159.153    22724153.969
  20994108.971   -25005453.80544 -19441077.74142  20994110.293    20994106.274
  24350002.491    -5939426.28543  -4588239.42142  24350004.758    24350004.302
  23013993.149   -11641972.31143  -9040126.99942  23013994.548    23013992.468
  21956770.286   -20386653.02543 -15706587.14042  21956770.580    21956766.902
  23252922.786   -11445796.68943  -8881458.53242  23252924.215    23252920.026
  23671187.009    -9063508.41943  -7057241.16442  23671188.138    23671187.737
 04  7 20  1 10  0.0000000  0  9G13G10G23G27G28G 3G 8G19G 1
  20376499.523   -23745759.72544 -18042666.72942  20376501.602    20376496.223
  23745463.219    -6290222.99643  -4871464.83442  23745464.056    23745462.420
  22741721.602   -14937102.50743 -11629543.11342  22741722.992    22741717.809
  20989407.252   -25030161.63244 -19460330.58742  20989408.590    20989404.473
  24330456.344    -6042139.93843  -4668275.80942  24330458.599    24330458.568
  23014997.267   -11636695.44543  -9036015.16142  23014998.821    23014996.559
  21944374.395   -20451793.44943 -15757345.87942  21944374.630    21944371.021
  23240792.664   -11509540.51443  -8931128.97342  23240794.110    23240790.151
  23689146.028    -8969133.47243  -6983702.35342  23689147.181    23689146.563
 04  7 20  1 10 30.0000000  0  9G13G10G23G27G28G 3G 8G19G 1
  20381794.082   -23717936.64743 -18020986.42442  20381796.136    20381790.777
  23734379.742    -6348466.81743  -4916849.57042  23734380.650    23734378.950
  22759334.909   -14844544.29043 -11557419.91042  22759336.338    22759331.075
  20984738.973   -25054693.61244 -19479446.40542  20984740.272    20984736.182
  24310934.753    -6144724.97843  -4748211.95742  24310936.862    24310936.953
  23016109.384   -11630851.94443  -9031461.79342  23016110.915    23016108.343
  21932012.757   -20516754.09543 -15807964.53242  21932012.967    21932009.356
  23228727.781   -11572941.22443  -8980532.06042  23228729.273    23228725.503
  23707143.533    -8874557.18143  -6910006.70442  23707144.640    23707143.724
 04  7 20  1 11  0.0000000  0  9G13G10G23G27G28G 3G 8G19G 1
  20387178.850   -23689639.61443 -17998936.80242  20387180.895    20387175.559
  23723390.633    -6406215.24143  -4961848.27542  23723391.595    23723389.733
  22776998.244   -14751722.62343 -11485091.40242  22776999.761    22776994.485
  20980105.143   -25079044.94344 -19498421.45642  20980106.411    20980102.248
  24291439.067    -6247174.88443  -4828042.82042  24291440.959    24291441.118
  23017330.093   -11624437.16443  -9026463.19642  23017331.478    23017328.842
  21919686.353   -20581529.47043 -15858438.81442  21919686.558    21919682.967
  23216729.798   -11635991.35943  -9029661.97742  23216731.183    23216727.468
  23725179.607    -8779776.22643  -6836151.56142  23725180.775    23725179.960
 04  7 20  1 11 30.0000000  0  9G13G10G23G27G28G 3G 8G19G 1
  20392653.409   -23660870.53444 -17976519.35342  20392655.497    20392650.144
  23712495.835    -6463468.33143  -5006461.02742  23712496.801    23712494.759
  22794711.040   -14658640.91043 -11412560.28242  22794712.464    22794707.381
  20975505.117   -25103217.71144 -19517257.36642  20975506.466    20975502.292
  24271969.345    -6349489.73743  -4907768.43442  24271971.200    24271970.973
  23018659.075   -11617452.60743  -9021020.67242  23018660.624    23018657.680
  21907394.661   -20646121.51143 -15908770.24142  21907394.936    21907391.525
  23204798.629   -11698690.00143  -9078518.01342  23204799.955    23204796.319
  23743254.151    -8684793.72443  -6762139.35142  23743255.403    23743254.556
 04  7 20  1 12  0.0000000  0  9G13G10G23G27G28G 3G 8G19G 1
  20398217.457   -23631631.37344 -17953735.60842  20398219.543    20398214.207
  23701695.096    -6520226.14343  -5050687.83942  23701696.118    23701694.117
  22812472.752   -14565302.48143 -11339829.12442  22812474.103    22812468.965
  20970938.856   -25127213.73944 -19535955.56242  20970940.150    20970936.031
  24252525.137    -6451669.72243  -4987389.00542  24252527.162    24252526.520
  23020096.463   -11609899.92343  -9015135.47042  23020098.020    23020094.788
  21895137.671   -20710532.00043 -15958960.19842  21895137.884    21895134.736
  23192934.551   -11761036.35843  -9127099.52042  23192935.782    23192932.134
  23761366.720    -8589612.95143  -6687972.65942  23761367.800    23761367.038
 04  7 20  1 12 30.0000000  0  9G13G10G23G27G28G 3G 8G19G 1
  20403871.480   -23601919.56944 -17930583.57642  20403873.564    20403868.211
  23690989.536    -6576484.35043  -5094525.34842  23690990.523    23690988.472
  22830283.718   -14471705.97743 -11266896.88042  22830285.090    22830279.640
  20966406.718   -25151030.28344 -19554513.90742  20966407.986    20966403.905
  24233107.099    -6553710.73443  -5066901.32842  24233109.330    24233108.600
  23021642.156   -11601776.50243  -9008805.50142  23021643.712    23021640.878
  21882915.916   -20774757.88043 -16009006.31842  21882916.097    21882912.948
  23181138.436   -11823025.29343  -9175402.52542  23181139.675    23181135.944
  23779517.226    -8494232.65443  -6613650.48142  23779518.254    23779517.709
 04  7 20  1 13  0.0000000  0  9G13G10G23G27G28G 3G 8G19G 1
  20409615.703   -23571733.57444 -17907062.04142  20409617.796    20409612.405
  23680379.603    -6632239.89943  -5137971.19842  23680380.587    23680378.430
  22848143.694   -14377851.49343 -11193763.59742  22848145.195    22848139.704
  20961909.030   -25174665.89744 -19572931.26842  20961910.305    20961906.192
  24213716.358    -6655609.76743  -5146302.99142  24213718.453    24213717.651
  23023296.806   -11593080.81943  -9002029.65942  23023298.162    23023295.685
  21870729.646   -20838797.64943 -16058907.41342  21870729.790    21870726.464
  23169410.930   -11884652.72543  -9223423.85642  23169412.301    23169408.570
  23797705.651    -8398652.66443  -6539172.68142  23797706.561    23797706.253
 04  7 20  1 13 30.0000000  0  9G13G10G23G27G28G 3G 8G19G 1
  20415448.981   -23541079.41944 -17883175.70342  20415451.080    20415445.757
  23669864.468    -6687497.45243  -5181028.99942  23669865.446    23669863.257
  22866051.326   -14283746.90843 -11120435.42342  22866052.828    22866047.377
  20957444.523   -25198126.95044 -19591212.60242  20957445.822    20957441.741
  24194351.869    -6757371.57143  -5225597.70942  24194353.701    24194352.489
  23025059.178   -11583819.07943  -8994812.75242  23025060.778    23025058.281
  21858577.526   -20902657.27643 -16108668.12342  21858577.660    21858574.339
  23157751.671   -11945922.19743  -9271166.25542  23157753.042    23157749.333
  23815930.654    -8302880.67043  -6464545.24542  23815931.543    23815931.188
 04  7 20  1 14  0.0000000  0  9G13G10G23G27G28G 3G 8G19G 1
  20421373.621   -23509945.31944 -17858915.38342  20421375.705    20421370.418
  23659446.742    -6742243.27243  -5223688.04342  23659447.780    23659445.507
  22884008.729   -14189381.40843 -11046903.95142  22884010.113    22884004.623
  20953015.569   -25221401.30244 -19609348.45242  20953016.872    20953012.798
  24175015.631    -6858982.33943  -5304774.72642  24175017.591    24175016.494
  23026931.968   -11573979.14243  -8987145.26042  23026933.249    23026930.989
  21846462.099   -20966324.21243 -16158278.69842  21846462.227    21846458.919
  23146163.331   -12006819.06243  -9318618.28342  23146164.698    23146160.836
  23834193.835    -8206905.89143  -6389759.81042  23834194.854    23834194.886
 04  7 20  1 14 30.0000000  0  9G13G10G23G27G28G 3G 8G19G 1
  20427387.080   -23478344.59344 -17834291.45542  20427389.138    20427383.856
  23649124.204    -6796488.61443  -5265957.10742  23649125.076    23649122.908
  22902012.779   -14094769.81243 -10973180.70942  22902014.203    22902008.719
  20948619.637   -25244502.08944 -19627349.06642  20948620.940    20948616.815
  24155705.693    -6960453.72843  -5383843.15842  24155707.752    24155707.081
  23028912.030   -11563574.26243  -8979037.54842  23028913.331    23028911.200
  21834380.827   -21029811.59843 -16207749.36642  21834381.010    21834377.633
  23134643.423   -12067353.96543  -9365788.25642  23134644.988    23134640.983
  23852493.137    -8110742.96843  -6314827.76942  23852494.125    23852494.191
 04  7 20  1 15  0.0000000  0  9G13G10G23G27G28G 3G 8G19G 1
  20433490.908   -23446268.70243 -17809297.27342  20433492.977    20433487.671
  23638898.774    -6850223.29143  -5307828.25742  23638899.654    23638897.390
  22920064.943   -13999905.34543 -10899260.42542  22920066.410    22920060.984
  20944258.326   -25267420.91244 -19645207.88242  20944259.592    20944255.507
  24136424.530    -7061775.79343  -5462795.22742  24136426.365    24136426.122
  23031001.030   -11552596.00443  -8970483.05942  23031002.253    23031000.092
  21822335.367   -21093111.09143 -16257073.61142  21822335.557    21822332.142
  23123194.901   -12127515.85743  -9412667.55242  23123196.319    23123192.160
  23870829.832    -8014384.69543  -6239743.53142  23870830.784    23870830.530
 04  7 20  1 15 30.0000000  0  9G13G10G23G27G28G 3G 8G19G 1
  20439684.726   -23413719.74444 -17783934.46642  20439686.801    20439681.526
  23628770.440    -6903447.81243  -5349301.88042  23628771.312    23628769.205
  22938164.559   -13904791.30543 -10825145.67642  22938166.067    22938160.899
  20939931.289   -25290159.64944 -19662926.37742  20939932.534    20939928.490
  24117171.952    -7162948.73643  -5541631.07542  24117173.863    24117173.540
  23033198.757   -11541046.32343  -8961483.32942  23033199.884    23033197.693
  21810325.482   -21156223.44043 -16306252.04842  21810325.648    21810322.235
  23111817.479   -12187304.24443  -9459255.81742  23111818.891    23111814.455
  23889202.955    -7917834.58643  -6164509.82042  23889203.994    23889203.426
 04  7 20  1 16  0.0000000  0  9G13G10G23G27G28G 3G 8G19G 1
  20445968.201   -23380699.79844 -17758204.65142  20445970.296    20445965.055
  23618739.054    -6956162.56443  -5390378.27842  23618739.973    23618738.019
  22956311.075   -13809431.33543 -10750839.28242  22956312.553    22956307.486
  20935638.053   -25312720.53044 -19680506.28142  20935639.352    20935635.235
  24097947.762    -7263973.11443  -5620351.17242  24097949.708    24097949.216
  23035504.456   -11528927.54043  -8952040.17442  23035506.243    23035503.773
  21798350.682   -21219151.07243 -16355286.54742  21798350.850    21798347.442
  23100511.263   -12246718.77043  -9505552.77942  23100512.557    23100508.145
  23907611.860    -7821096.19443  -6089129.39142  23907612.959    23907612.174
 04  7 20  1 16 30.0000000  0  9G13G10G23G27G28G 3G 8G19G 1
  20452342.020   -23347205.47344 -17732105.19342  20452344.080    20452338.791
  23608805.364    -7008362.53643  -5431053.54642  23608806.367    23608804.684
  22974504.708   -13713823.64643 -10676339.87142  22974506.195    22974501.171
  20931379.352   -25335099.88744 -19697944.73942  20931380.636    20931376.564
  24078752.595    -7364843.74643  -5698951.50642  24078754.611    24078754.130
  23037919.533   -11516236.43643  -8942150.97642  23037921.326    23037918.819
  21786411.615   -21281890.75143 -16404174.58742  21786411.828    21786408.483
  23089277.321   -12305753.34243  -9551553.67842  23089278.651    23089274.355
  23926056.994    -7724167.29243  -6013600.50242  23926058.126    23926057.188
 04  7 20  1 17  0.0000000  0  9G13G10G23G27G28G 3G 8G19G 1
  20458805.248   -23313240.96244 -17705639.35942  20458807.330    20458801.995
  23598969.492    -7060050.02943  -5471329.46542  23598970.303    23598968.839
  22992744.393   -13617973.48743 -10601651.50142  22992745.912    22992741.034
  20927154.517   -25357301.62644 -19715244.78342  20927155.801    20927151.706
  24059586.131    -7465563.18743  -5777434.00242  24059588.156    24059587.425
  23040442.962   -11502976.67643  -8931818.65642  23040444.644    23040441.920
  21774507.805   -21344445.62143 -16452918.62242  21774507.967    21774504.632
  23078115.632   -12364409.05643  -9597259.34642  23078116.932    23078112.613
  23944537.549    -7627053.18143  -5937927.30242  23944538.627    23944537.450
 04  7 20  1 17 30.0000000  0  9G13G10G23G27G28G 3G 8G19G 1
  20465358.666   -23278802.84244 -17678804.47742  20465360.748    20465355.362
  23589231.988    -7111220.16443  -5511202.24642  23589232.888    23589231.411
  23011030.659   -13521878.74643 -10526772.55542  23011032.188    23011027.386
  20922964.212   -25379322.19044 -19732403.65742  20922965.497    20922961.328
  24040449.469    -7566126.24743  -5855794.61742  24040451.504    24040450.523
  23043075.321   -11489144.97643  -8921040.70642  23043076.957    23043074.071
  21762639.945   -21406811.60943 -16501515.46942  21762640.033    21762636.741
  23067026.999   -12422680.18543  -9642665.35742  23067028.314    23067023.987
  23963053.514    -7529751.74343  -5862108.16242  23963054.580    23963053.496
 04  7 20  1 18  0.0000000  0  9G13G10G23G27G28G 3G 8G19G 1
  20472002.148   -23243891.55644 -17651600.90142  20472004.224    20471998.781
  23579593.395    -7161871.69343  -5550670.94242  23579594.335    23579592.707
  23029363.278   -13425541.42943 -10451704.59242  23029364.687    23029359.737
  20918808.225   -25401161.73144 -19749421.47242  20918809.526    20918805.425
  24021342.920    -7666531.83643  -5934032.53542  24021345.084    24021343.818
  23045816.080   -11474742.04243  -8909817.63542  23045817.802    23045814.765
  21750807.890   -21468989.38443 -16549965.65942  21750808.041    21750804.653
  23056011.870   -12480564.52043  -9687769.99142  23056013.254    23056008.928
  23981604.495    -7432264.91343  -5786144.50642  23981605.687    23981604.617
 04  7 20  1 18 30.0000000  0  9G13G10G23G27G28G 3G 8G19G 1
  20478735.388   -23208508.16744 -17624029.44442  20478737.498    20478732.056
  23570053.582    -7212004.01143  -5589735.05442  23570054.659    23570052.761
  23047741.273   -13328964.21143 -10376449.68942  23047742.726    23047737.550
  20914686.459   -25422821.44744 -19766299.17042  20914687.757    20914683.761
  24002266.081    -7766779.35043  -6012147.27042  24002268.373    24002267.185
  23048665.194   -11459768.90843  -8898150.27442  23048666.936    23048663.759
  21739011.624   -21530979.60643 -16598269.70042  21739011.750    21739008.246
  23045070.912   -12538060.48843  -9732572.00342  23045072.166    23045067.908
  24000190.255    -7334595.09443  -5710038.26942  24000191.440    24000190.500
 04  7 20  1 19  0.0000000  0  9G13G10G23G27G28G 3G 8G19G 1
  20485558.272   -23172653.39444 -17596090.67942  20485560.401    20485555.059
  23560612.947    -7261615.87843  -5628393.60942  23560613.989    23560611.680
  23066164.505   -13232149.00643 -10301009.34742  23066165.974    23066160.794
  20910598.924   -25444301.59344 -19783036.94442  20910600.227    20910596.204
  23983219.394    -7866867.55143  -6090137.86542  23983221.610    23983220.943
  23051623.060   -11444226.15643  -8886039.02942  23051624.516    23051621.418
  21727251.036   -21592781.83243 -16646427.26542  21727251.139    21727247.675
  23034204.209   -12595166.03643  -9777069.78942  23034205.508    23034201.163
  24018810.633    -7236743.89843  -5633790.71242  24018811.763    24018811.366
 04  7 20  1 19 30.0000000  0  9G13G10G23G27G28G 3G 8G19G 1
  20492471.835   -23136322.32544 -17567780.77042  20492473.941    20492468.638
  23551272.327    -7310701.03143  -5666641.78042  23551273.364    23551270.948
  23084633.837   -13135092.40043 -10225380.90542  23084635.224    23084629.983
  20906546.500   -25465597.10244 -19799630.83142  20906547.795    20906543.777
  23964204.767    -7966790.16843  -6167999.42942  23964206.789    23964206.175
  23054689.764   -11428109.23543  -8873480.41542  23054691.327    23054688.635
  21715527.184   -21654391.28243 -16694434.61742  21715527.288    21715523.840
  23023413.153   -12651873.74743  -9821257.56542  23023414.473    23023410.131
  24037466.347    -7138707.91243  -5557399.15942  24037467.490    24037467.413
 04  7 20  1 20  0.0000000  0  9G13G10G23G27G28G 3G 8G19G 1
  20499475.077   -23099519.81444 -17539103.50442  20499477.171    20499471.897
  23542031.216    -7359262.63043  -5704481.95642  23542032.309    23542029.968
  23103147.820   -13037800.54343 -10149569.15942  23103149.147    23103144.017
  20902528.364   -25486712.42544 -19816084.32142  20902529.663    20902525.598
  23945221.015    -8066550.01543  -6245734.16442  23945223.102    23945222.112
  23057865.157   -11411423.03643  -8860478.18242  23057866.620    23057863.755
  21703839.177   -21715812.53543 -16742295.30342  21703839.332    21703835.764
  23012697.145   -12708185.70743  -9865136.94942  23012698.545    23012694.225
  24056156.043    -7040493.04043  -5480868.18342  24056157.180    24056157.313
 04  7 20  1 20 30.0000000  0  9G13G10G23G27G28G 3G 8G19G 1
  20506567.860   -23062247.33644 -17510060.03042  20506569.933    20506564.628
  23532889.903    -7407300.11843  -5741913.73542  23532890.938    23532888.666
  23121706.160   -12940276.15343 -10073576.22242  23121707.405    23121702.337
  20898544.274   -25507648.83144 -19832398.39942  20898545.578    20898541.569
  23926268.290    -8166146.67543  -6323341.75242  23926270.257    23926269.279
  23061148.696   -11394168.80543  -8847033.33742  23061150.006    23061146.939
  21692186.831   -21777045.77743 -16790009.47942  21692187.030    21692183.401
  23002056.812   -12764100.57943  -9908706.91242  23002058.229    23002053.834
  24074879.041    -6942101.97443  -5404199.94242  24074880.513    24074880.771
 04  7 20  1 21  0.0000000  0  9G13G10G23G27G28G 3G 8G19G 1
  20513750.474   -23024502.77244 -17480648.70042  20513752.538    20513747.224
  23523849.061    -7454809.95943  -5778934.34842  23523850.018    23523847.602
  23140309.042   -12842518.35243  -9997401.44142  23140310.154    23140305.126
  20894594.843   -25528403.62344 -19848570.95642  20894596.142    20894592.076
  23907347.139    -8265576.33743  -6400819.21342  23907349.113    23907348.017
  23064540.644   -11376344.52443  -8833144.26342  23064542.022    23064538.802
  21680570.594   -21838088.35343 -16837575.11142  21680570.831    21680567.369
  22991493.182   -12819613.46543  -9951963.63142  22991494.528    22991489.981
  24093635.901    -6843533.64243  -5327393.55442  24093637.346    24093637.731
 04  7 20  1 21 30.0000000  0  9G13G10G23G27G28G 3G 8G19G 1
  20521023.109   -22986284.90244 -17450868.55642  20521025.235    20521019.924
  23514909.259    -7501789.36943  -5815541.64642  23514910.162    23514907.773
  23158956.151   -12744527.52143  -9921045.06042  23158957.333    23158952.287
  20890680.139   -25548975.59044 -19864601.04842  20890681.470    20890677.326
  23888458.504    -8364836.21343  -6478164.37842  23888460.519    23888459.114
  23068041.066   -11357949.30543  -8818810.33642  23068042.520    23068039.350
  21668991.000   -21898939.29443 -16884991.40942  21668991.124    21668987.843
  22981006.415   -12874720.84843  -9994904.39042  22981007.912    22981003.375
  24112426.860    -6744788.44943  -5250449.39542  24112428.188    24112428.451
 04  7 20  1 22  0.0000000  0  9G13G10G23G27G28G 3G 8G19G 1
  20528385.384   -22947596.31244 -17420721.62042  20528387.507    20528382.155
  23506070.085    -7548239.17543  -5851736.27842  23506071.016    23506068.884
  23177646.739   -12646307.67543  -9844510.20642  23177647.969    23177643.193
  20886799.788   -25569366.83044 -19880490.31642  20886801.132    20886796.997
  23869602.186    -8463926.99443  -6555377.78842  23869604.206    23869602.275
  23071649.665   -11338985.85543  -8804033.60542  23071651.081    23071648.085
  21657447.613   -21959600.43143 -16932259.80642  21657447.787    21657444.296
  22970596.928   -12929422.52943 -10037529.03142  22970598.429    22970593.966
  24131250.837    -6645869.97543  -5173370.20742  24131252.119    24131252.092
 04  7 20  1 22 30.0000000  0  9G13G10G23G27G28G 3G 8G19G 1
  20535837.240   -22908436.26744 -17390207.31142  20535839.402    20535834.050
  23497332.051    -7594157.00443  -5887516.36542  23497332.970    23497331.074
  23196380.913   -12547859.00943  -9767797.05442  23196382.132    23196377.431
  20882954.074   -25589576.14644 -19896237.83342  20882955.410    20882951.245
  23850778.541    -8562845.98143  -6632457.33842  23850780.494    23850778.224
  23075366.520   -11319453.35743  -8788813.51842  23075367.829    23075365.171
  21645940.690   -22020070.07043 -16979378.96842  21645940.897    21645937.166
  22960265.217   -12983714.69243 -10079834.58942  22960266.754    22960262.542
  24150107.291    -6546778.63943  -5096156.28842  24150108.653    24150108.595
 04  7 20  1 23  0.0000000  0  9G13G10G23G27G28G 3G 8G19G 1
  20543379.420   -22868801.99844 -17359323.48842  20543381.573    20543376.189
  23488696.173    -7639538.31443  -5922878.39442  23488697.084    23488695.125
  23215159.048   -12449180.13243  -9690904.52042  23215160.197    23215155.544
  20879143.586   -25609600.36844 -19911841.10842  20879144.900    20879140.741
  23831988.073    -8661588.72443  -6709399.56842  23831990.031    23831987.699
  23079192.355   -11299349.14343  -8773147.92842  23079193.636    23079191.156
  21634470.848   -22080344.87243 -17026346.31442  21634471.044    21634467.198
  22950012.477   -13037592.11843 -10121816.99142  22950014.036    22950009.927
  24168996.785    -6447513.05043  -5018806.58642  24168998.105    24168998.091
 04  7 20  1 23 30.0000000  0  9G13G10G23G27G28G 3G 8G19G 1
  20551010.186   -22828701.76044 -17328076.56542  20551012.373    20551006.986
  23480161.453    -7684389.79343  -5957827.53142  23480162.316    23480160.256
  23233978.883   -12350280.72743  -9613840.12842  23233980.202    23233975.562
  20875366.811   -25629447.27844 -19927306.22442  20875368.117    20875364.024
  23813230.456    -8760161.60043  -6786209.45742  23813232.265    23813229.778
  23083125.228   -11278681.58543  -8757043.35642  23083126.535    23083124.309
  21623036.393   -22140432.70943 -17073167.97542  21623036.612    21623032.842
  22939837.793   -13091060.58943 -10163480.70642  22939839.257    22939835.044
  24187918.123    -6348082.49543  -4941328.35642  24187919.301    24187918.939
 04  7 20  1 24  0.0000000  0  9G13G10G23G27G28G 3G 8G19G 1
  20558730.913   -22788128.87244 -17296461.34942  20558733.080    20558727.752
  23471728.930    -7728703.22243  -5992357.46242  23471729.782    23471727.757
  23252841.736   -12251155.50443  -9536599.76642  23252843.135    23252838.730
  20871625.056   -25649110.12444 -19942627.91842  20871626.396    20871622.346
  23794506.592    -8858556.43943  -6862880.61842  23794508.449    23794505.930
  23087166.631   -11257444.46843  -8740494.97842  23087167.964    23087165.590
  21611638.875   -22200326.70043 -17119838.58442  21611639.134    21611635.420
  22929742.881   -13144110.66743 -10204818.38642  22929744.232    22929739.925
  24206871.541    -6248481.75143  -4863717.49742  24206872.734    24206872.082
 04  7 20  1 24 30.0000000  0  9G13G10G23G27G28G 3G 8G19G 1
  20566541.836   -22747082.36044 -17264477.07842  20566543.953    20566538.657
  23463399.075    -7772475.87543  -6026465.99642  23463400.097    23463398.133
  23271747.662   -12151804.63943  -9459183.60142  23271749.101    23271744.833
  20867918.675   -25668587.19344 -19957804.85642  20867919.992    20867916.007
  23775816.964    -8956770.22843  -6939410.67342  23775818.879    23775816.522
  23091316.531   -11235636.86343  -8723502.03342  23091317.875    23091315.477
  21600278.731   -22260024.90243 -17166356.63042  21600278.932    21600275.282
  22919728.012   -13196738.74743 -10245827.24342  22919729.350    22919725.066
  24225857.427    -6148710.75543  -4785973.98542  24225858.778    24225857.916
 04  7 20  1 25  0.0000000  0  9G13G10G23G27G28G 3G 8G19G 1
  20574441.828   -22705567.53644 -17232127.88542  20574443.946    20574438.704
  23455171.861    -7815711.23743  -6060155.83842  23455172.885    23455170.578
  23290695.216   -12052234.49043  -9381596.57142  23290696.692    23290692.581
  20864246.804   -25687883.17644 -19972840.68342  20864248.138    20864244.115
  23757161.137    -9054805.91243  -7015801.94042  23757163.076    23757160.896
  23095573.902   -11213263.85943  -8706068.51842  23095575.365    23095572.747
  21588954.889   -22319531.76643 -17212725.59242  21588955.081    21588951.568
  22909793.023   -13248947.09043 -10286509.01742  22909794.297    22909790.089
  24244874.721    -6048775.63043  -4708102.60542  24244876.134    24244875.204
 04  7 20  1 25 30.0000000  0  9G13G10G23G27G28G 3G 8G19G 1
  20582431.464   -22663581.84844 -17199411.79542  20582433.547    20582428.380
  23447047.470    -7858405.37243  -6093423.96542  23447048.637    23447045.946
  23309684.740   -11952444.13543  -9303837.94442  23309686.165    23309682.146
  20860609.886   -25706995.37344 -19987733.30042  20860611.215    20860607.100
  23738539.955    -9152659.62843  -7092051.43642  23738541.842    23738539.799
  23099939.380   -11190323.36043  -8688192.82342  23099940.761    23099937.996
  21577668.084   -22378844.00443 -17258942.90242  21577668.221    21577664.893
  22899938.993   -13300730.70143 -10326859.84942  22899940.257    22899935.941
  24263923.434    -5948675.41043  -4630102.54842  24263924.770    24263924.037
 04  7 20  1 26  0.0000000  0  9G13G10G23G27G28G 3G 8G19G 1
  20590510.808   -22621124.68744 -17166328.31542  20590512.892    20590507.797
  23439026.514    -7900555.87243  -6126268.48642  23439027.724    23439024.961
  23328716.182   -11852433.99643  -9225908.05942  23328717.596    23328713.541
  20857008.262   -25725922.27744 -20002481.53042  20857009.544    20857005.375
  23719954.256    -9250328.56243  -7168156.94842  23719955.999    23719953.813
  23104412.930   -11166814.55043  -8669874.27942  23104414.306    23104411.573
  21566418.514   -22437960.56043 -17305007.72742  21566418.658    21566415.382
  22890166.388   -13352085.87443 -10366876.81442  22890167.678    22890163.338
  24283003.178    -5848410.22643  -4551973.94742  24283004.362    24283004.109
 04  7 20  1 26 30.0000000  0  9G13G10G23G27G28G 3G 8G19G 1
  20598678.923   -22578201.21444 -17132881.47442  20598680.954    20598675.967
  23431108.364    -7942166.32743  -6158692.18642  23431109.540    23431106.877
  23347788.266   -11752210.54343  -9147811.96642  23347789.698    23347785.573
  20853440.925   -25744668.70944 -20017089.13342  20853442.192    20853438.077
  23701402.758    -9347816.22843  -7244121.24142  23701404.566    23701402.285
  23108993.548   -11142743.21743  -8651117.41742  23108994.939    23108992.319
  21555205.433   -22496885.74543 -17350923.42942  21555205.601    21555202.216
  22880474.725   -13403015.40343 -10406562.10942  22880475.909    22880471.694
  24302113.000    -5747986.45843  -4473721.80142  24302114.000    24302114.133
 04  7 20  1 27  0.0000000  0  9G13G10G23G27G28G 3G 8G19G 1
  20606936.924   -22534805.21244 -17099066.42342  20606938.963    20606933.989
  23423294.253    -7983229.17143  -6190689.17642  23423295.378    23423292.786
  23366901.721   -11651769.19643  -9069546.08042  23366903.194    23366899.031
  20849909.138   -25763228.06944 -20031550.96742  20849910.406    20849906.334
  23682887.250    -9445114.55543  -7319938.01142  23682889.078    23682886.754
  23113682.384   -11118103.32443  -8631917.50442  23113683.699    23113681.083
  21544030.097   -22555613.01743 -17396684.90842  21544030.239    21544026.706
  22870865.710   -13453510.54543 -10445908.94842  22870866.878    22870862.795
  24321254.013    -5647399.30043  -4395342.33442  24321254.937    24321255.396
 04  7 20  1 27 30.0000000  0  9G13G10G23G27G28G 3G 8G19G 1
  20615284.081   -22490940.89644 -17064886.46642  20615286.110    20615281.101
  23415584.061    -8023746.87943  -6222261.40042  23415585.041    23415582.300
  23386055.768   -11551114.55443  -8991114.00242  23386057.246    23386052.898
  20846412.360   -25781603.68343 -20045869.63742  20846413.621    20846409.564
  23664407.427    -9542225.82143  -7395609.02742  23664409.318    23664406.894
  23118478.768   -11092898.96043  -8612277.75242  23118480.073    23118477.400
  21532891.665   -22614145.47943 -17442294.58942  21532891.868    21532888.145
  22861339.249   -13503572.67743 -10484918.35942  22861340.440    22861336.315
  24340425.389    -5546653.71143  -4316839.40542  24340426.326    24340426.797
 04  7 20  1 28  0.0000000  0  9G13G10G23G27G28G 3G 8G19G 1
  20623719.966   -22446610.20844 -17030343.10042  20623722.018    20623716.936
  23407977.548    -8063719.69143  -6253408.99242  23407978.541    23407975.684
  23405249.897   -11450250.15243  -8912518.48142  23405251.231    23405246.675
  20842950.307   -25799796.99643 -20060046.24442  20842951.580    20842947.560
  23645963.346    -9639149.92543  -7471134.20242  23645965.187    23645962.690
  23123381.854   -11067132.51843  -8592200.01642  23123383.275    23123380.742
  21521790.141   -22672483.95143 -17487753.11042  21521790.368    21521786.557
  22851895.477   -13553200.88743 -10523589.63642  22851896.646    22851892.327
  24359626.577    -5445752.81743  -4238215.46542  24359627.493    24359627.736
 04  7 20  1 28 30.0000000  0  9G13G10G23G27G28G 3G 8G19G 1
  20632245.186   -22401810.06244 -16995433.92542  20632247.261    20632242.100
  23400475.472    -8103142.88243  -6284128.35742  23400476.455    23400473.675
  23424484.245   -11349174.10643  -8833758.04742  23424485.525    23424480.785
  20839523.632   -25817804.18644 -20074077.79942  20839524.897    20839520.968
  23627555.848    -9735881.80943  -7546509.55942  23627557.707    23627555.077
  23128392.638   -11040800.84843  -8571681.85042  23128394.028    23128391.507
  21510726.295   -22730625.02943 -17533057.81342  21510726.466    21510722.584
  22842535.198   -13602389.43043 -10561918.30942  22842536.447    22842531.901
  24378857.739    -5344694.61643  -4159468.97642  24378858.624    24378858.902
 04  7 20  1 29  0.0000000  0  9G13G10G23G27G28G 3G 8G19G 1
  20640859.550   -22356541.09944 -16960159.43342  20640861.625    20640856.490
  23393078.085    -8142015.58143  -6314418.74342  23393079.111    23393076.452
  23443758.238   -11247888.35543  -8754834.20042  23443759.662    23443754.967
  20836132.371   -25835625.43144 -20087964.49342  20836133.637    20836129.622
  23609185.230    -9832420.35243  -7621734.27142  23609187.045    23609184.313
  23133510.536   -11013904.96643  -8550724.04142  23133512.079    23133509.634
  21499699.983   -22788568.32143 -17578208.40642  21499700.154    21499696.166
  22833258.918   -13651136.35343 -10599902.86742  22833260.130    22833255.473
  24398117.939    -5243480.87443  -4080601.26242  24398119.101    24398119.655
